Wetterdaten: Samstag, 07.02.2015
Datum Zeit Temp. Aussen +5cm Feuchte Auss Luftdruck Regen Sonnenschein Regendauer Solar Windben
07.02.2015 00:00 -1,2 C -2,8 C 82 % 1029,9 hPa 0,0 l/m 0 min 0 min 0 W/m 16,7 km/h (3 Bft)
07.02.2015 00:02 -1,2 C -2,8 C 82 % 1029,9 hPa 0,0 l/m 0 min 0 min 0 W/m 27,2 km/h (4 Bft)
07.02.2015 00:05 -1,3 C -2,8 C 82 % 1029,9 hPa 0,0 l/m 0 min 0 min 0 W/m 18,8 km/h (3 Bft)
07.02.2015 00:06 -1,3 C -2,8 C 82 % 1029,9 hPa 0,0 l/m 0 min 0 min 0 W/m 20,9 km/h (4 Bft)
07.02.2015 00:08 -1,3 C -2,8 C 82 % 1029,9 hPa 0,0 l/m 0 min 0 min 0 W/m 16,7 km/h (3 Bft)
07.02.2015 00:10 -1,3 C -2,8 C 82 % 1029,9 hPa 0,0 l/m 0 min 0 min 0 W/m 20,9 km/h (4 Bft)
07.02.2015 00:12 -1,3 C -2,8 C 82 % 1029,9 hPa 0,0 l/m 0 min 0 min 0 W/m 18,8 km/h (3 Bft)
07.02.2015 00:14 -1,3 C -2,8 C 82 % 1030,0 hPa 0,0 l/m 0 min 0 min 0 W/m 23,0 km/h (4 Bft)
07.02.2015 00:16 -1,3 C -2,8 C 82 % 1030,0 hPa 0,0 l/m 0 min 0 min 0 W/m 12,6 km/h (3 Bft)
07.02.2015 00:18 -1,3 C -3,3 C 82 % 1030,1 hPa 0,0 l/m 0 min 0 min 0 W/m 14,6 km/h (3 Bft)
07.02.2015 00:20 -1,3 C -3,3 C 82 % 1030,1 hPa 0,0 l/m 0 min 0 min 0 W/m 14,6 km/h (3 Bft)
07.02.2015 00:22 -1,3 C -3,3 C 82 % 1030,2 hPa 0,0 l/m 0 min 0 min 0 W/m 10,5 km/h (2 Bft)
07.02.2015 00:24 -1,3 C -3,3 C 82 % 1030,1 hPa 0,0 l/m 0 min 0 min 0 W/m 18,8 km/h (3 Bft)
07.02.2015 00:26 -1,4 C -3,3 C 82 % 1030,1 hPa 0,0 l/m 0 min 0 min 0 W/m 14,6 km/h (3 Bft)
07.02.2015 00:28 -1,4 C -3,3 C 82 % 1030,0 hPa 0,0 l/m 0 min 0 min 0 W/m 20,9 km/h (4 Bft)
07.02.2015 00:30 -1,4 C -3,3 C 82 % 1030,1 hPa 0,0 l/m 0 min 0 min 0 W/m 23,0 km/h (4 Bft)
07.02.2015 00:32 -1,4 C -3,3 C 82 % 1030,1 hPa 0,0 l/m 0 min 0 min 0 W/m 12,6 km/h (3 Bft)
07.02.2015 00:34 -1,4 C -3,3 C 82 % 1030,1 hPa 0,0 l/m 0 min 0 min 0 W/m 14,6 km/h (3 Bft)
07.02.2015 00:36 -1,4 C -3,3 C 82 % 1030,1 hPa 0,0 l/m 0 min 0 min 0 W/m 10,5 km/h (2 Bft)
07.02.2015 00:38 -1,4 C -3,3 C 82 % 1030,1 hPa 0,0 l/m 0 min 0 min 0 W/m 14,6 km/h (3 Bft)
07.02.2015 00:40 -1,5 C -3,3 C 82 % 1030,0 hPa 0,0 l/m 0 min 0 min 0 W/m 14,6 km/h (3 Bft)
07.02.2015 00:42 -1,5 C -3,3 C 82 % 1030,1 hPa 0,0 l/m 0 min 0 min 0 W/m 14,6 km/h (3 Bft)
07.02.2015 00:44 -1,5 C -3,3 C 82 % 1030,0 hPa 0,0 l/m 0 min 0 min 0 W/m 20,9 km/h (4 Bft)
07.02.2015 00:46 -1,6 C -3,3 C 82 % 1030,1 hPa 0,0 l/m 0 min 0 min 0 W/m 10,5 km/h (2 Bft)
07.02.2015 00:48 -1,6 C -3,3 C 82 % 1030,0 hPa 0,0 l/m 0 min 0 min 0 W/m 14,6 km/h (3 Bft)
07.02.2015 00:50 -1,6 C -3,3 C 83 % 1030,1 hPa 0,0 l/m 0 min 0 min 0 W/m 12,6 km/h (3 Bft)
07.02.2015 00:52 -1,6 C -3,3 C 83 % 1030,0 hPa 0,0 l/m 0 min 0 min 0 W/m 18,8 km/h (3 Bft)
07.02.2015 00:54 -1,6 C -3,3 C 83 % 1030,1 hPa 0,0 l/m 0 min 0 min 0 W/m 16,7 km/h (3 Bft)
07.02.2015 00:56 -1,6 C -3,3 C 83 % 1030,1 hPa 0,0 l/m 0 min 0 min 0 W/m 14,6 km/h (3 Bft)
07.02.2015 00:58 -1,6 C -3,3 C 83 % 1030,1 hPa 0,0 l/m 0 min 0 min 0 W/m 14,6 km/h (3 Bft)
07.02.2015 01:00 -1,6 C -3,3 C 83 % 1030,0 hPa 0,0 l/m 0 min 0 min 0 W/m 12,6 km/h (3 Bft)
07.02.2015 01:02 -1,6 C -3,3 C 83 % 1030,1 hPa 0,0 l/m 0 min 0 min 0 W/m 10,5 km/h (2 Bft)
07.02.2015 01:04 -1,6 C -3,3 C 83 % 1030,1 hPa 0,0 l/m 0 min 0 min 0 W/m 14,6 km/h (3 Bft)
07.02.2015 01:06 -1,7 C -3,9 C 83 % 1030,1 hPa 0,0 l/m 0 min 0 min 0 W/m 10,5 km/h (2 Bft)
07.02.2015 01:08 -1,7 C -3,9 C 83 % 1030,1 hPa 0,0 l/m 0 min 0 min 0 W/m 20,9 km/h (4 Bft)
07.02.2015 01:10 -1,7 C -3,3 C 83 % 1030,2 hPa 0,0 l/m 0 min 0 min 0 W/m 10,5 km/h (2 Bft)
07.02.2015 01:12 -1,7 C -3,9 C 83 % 1030,1 hPa 0,0 l/m 0 min 0 min 0 W/m 10,5 km/h (2 Bft)
07.02.2015 01:14 -1,7 C -3,9 C 83 % 1030,1 hPa 0,0 l/m 0 min 0 min 0 W/m 14,6 km/h (3 Bft)
07.02.2015 01:16 -1,8 C -3,9 C 83 % 1030,2 hPa 0,0 l/m 0 min 0 min 0 W/m 10,5 km/h (2 Bft)
07.02.2015 01:18 -1,8 C -3,9 C 83 % 1030,2 hPa 0,0 l/m 0 min 0 min 0 W/m 10,5 km/h (2 Bft)
07.02.2015 01:20 -1,8 C -3,9 C 83 % 1030,2 hPa 0,0 l/m 0 min 0 min 0 W/m 10,5 km/h (2 Bft)
07.02.2015 01:22 -1,8 C -3,9 C 83 % 1030,1 hPa 0,0 l/m 0 min 0 min 0 W/m 12,6 km/h (3 Bft)
07.02.2015 01:24 -1,8 C -3,9 C 83 % 1030,1 hPa 0,0 l/m 0 min 0 min 0 W/m 12,6 km/h (3 Bft)
07.02.2015 01:26 -1,8 C -3,9 C 83 % 1030,1 hPa 0,0 l/m 0 min 0 min 0 W/m 16,7 km/h (3 Bft)
07.02.2015 01:28 -1,8 C -3,9 C 83 % 1030,1 hPa 0,0 l/m 0 min 0 min 0 W/m 23,0 km/h (4 Bft)
07.02.2015 01:30 -1,9 C -3,9 C 83 % 1030,1 hPa 0,0 l/m 0 min 0 min 0 W/m 12,6 km/h (3 Bft)
07.02.2015 01:32 -1,9 C -3,9 C 83 % 1030,2 hPa 0,0 l/m 0 min 0 min 0 W/m 12,6 km/h (3 Bft)
07.02.2015 01:34 -1,9 C -3,9 C 83 % 1030,2 hPa 0,0 l/m 0 min 0 min 0 W/m 14,6 km/h (3 Bft)
07.02.2015 01:36 -1,9 C -3,9 C 83 % 1030,1 hPa 0,0 l/m 0 min 0 min 0 W/m 14,6 km/h (3 Bft)
07.02.2015 01:38 -1,9 C -3,9 C 83 % 1030,1 hPa 0,0 l/m 0 min 0 min 0 W/m 14,6 km/h (3 Bft)
07.02.2015 01:40 -2,0 C -3,9 C 83 % 1030,1 hPa 0,0 l/m 0 min 0 min 0 W/m 8,4 km/h (2 Bft)
07.02.2015 01:42 -2,0 C -3,9 C 83 % 1030,2 hPa 0,0 l/m 0 min 0 min 0 W/m 6,3 km/h (2 Bft)
07.02.2015 01:44 -2,0 C -3,9 C 83 % 1030,2 hPa 0,0 l/m 0 min 0 min 0 W/m 4,2 km/h (1 Bft)
07.02.2015 01:46 -2,0 C -3,9 C 83 % 1030,2 hPa 0,0 l/m 0 min 0 min 0 W/m 6,3 km/h (2 Bft)
07.02.2015 01:48 -2,0 C -3,9 C 83 % 1030,2 hPa 0,0 l/m 0 min 0 min 0 W/m 10,5 km/h (2 Bft)
07.02.2015 01:50 -2,1 C -3,9 C 83 % 1030,3 hPa 0,0 l/m 0 min 0 min 0 W/m 10,5 km/h (2 Bft)
07.02.2015 01:52 -2,1 C -4,4 C 83 % 1030,2 hPa 0,0 l/m 0 min 0 min 0 W/m 6,3 km/h (2 Bft)
07.02.2015 01:54 -2,1 C -4,4 C 83 % 1030,2 hPa 0,0 l/m 0 min 0 min 0 W/m 6,3 km/h (2 Bft)
07.02.2015 01:56 -2,1 C -4,4 C 84 % 1030,2 hPa 0,0 l/m 0 min 0 min 0 W/m 8,4 km/h (2 Bft)
07.02.2015 01:58 -2,1 C -4,4 C 84 % 1030,3 hPa 0,0 l/m 0 min 0 min 0 W/m 6,3 km/h (2 Bft)
07.02.2015 02:00 -2,1 C -4,4 C 84 % 1030,3 hPa 0,0 l/m 0 min 0 min 0 W/m 10,5 km/h (2 Bft)
07.02.2015 02:02 -2,2 C -4,4 C 84 % 1030,3 hPa 0,0 l/m 0 min 0 min 0 W/m 6,3 km/h (2 Bft)
07.02.2015 02:04 -2,2 C -4,4 C 84 % 1030,4 hPa 0,0 l/m 0 min 0 min 0 W/m 8,4 km/h (2 Bft)
07.02.2015 02:06 -2,2 C -4,4 C 84 % 1030,4 hPa 0,0 l/m 0 min 0 min 0 W/m 8,4 km/h (2 Bft)
07.02.2015 02:08 -2,2 C -3,9 C 84 % 1030,3 hPa 0,0 l/m 0 min 0 min 0 W/m 8,4 km/h (2 Bft)
07.02.2015 02:10 -2,2 C -3,9 C 84 % 1030,4 hPa 0,0 l/m 0 min 0 min 0 W/m 6,3 km/h (2 Bft)
07.02.2015 02:12 -2,2 C -3,9 C 84 % 1030,4 hPa 0,0 l/m 0 min 0 min 0 W/m 6,3 km/h (2 Bft)
07.02.2015 02:14 -2,3 C -3,9 C 84 % 1030,4 hPa 0,0 l/m 0 min 0 min 0 W/m 8,4 km/h (2 Bft)
07.02.2015 02:16 -2,3 C -3,9 C 84 % 1030,5 hPa 0,0 l/m 0 min 0 min 0 W/m 8,4 km/h (2 Bft)
07.02.2015 02:18 -2,3 C -3,9 C 84 % 1030,4 hPa 0,0 l/m 0 min 0 min 0 W/m 10,5 km/h (2 Bft)
07.02.2015 02:20 -2,2 C -3,9 C 84 % 1030,4 hPa 0,0 l/m 0 min 0 min 0 W/m 8,4 km/h (2 Bft)
07.02.2015 02:22 -2,2 C -3,9 C 84 % 1030,4 hPa 0,0 l/m 0 min 0 min 0 W/m 6,3 km/h (2 Bft)
07.02.2015 02:24 -2,2 C -3,9 C 84 % 1030,4 hPa 0,0 l/m 0 min 0 min 0 W/m 10,5 km/h (2 Bft)
07.02.2015 02:26 -2,2 C -3,9 C 84 % 1030,5 hPa 0,0 l/m 0 min 0 min 0 W/m 12,6 km/h (3 Bft)
07.02.2015 02:28 -2,2 C -3,9 C 84 % 1030,5 hPa 0,0 l/m 0 min 0 min 0 W/m 8,4 km/h (2 Bft)
07.02.2015 02:30 -2,2 C -3,9 C 84 % 1030,6 hPa 0,0 l/m 0 min 0 min 0 W/m 6,3 km/h (2 Bft)
07.02.2015 02:32 -2,2 C -3,9 C 84 % 1030,7 hPa 0,0 l/m 0 min 0 min 0 W/m 8,4 km/h (2 Bft)
07.02.2015 02:34 -2,2 C -3,9 C 84 % 1030,6 hPa 0,0 l/m 0 min 0 min 0 W/m 8,4 km/h (2 Bft)
07.02.2015 02:36 -2,2 C -3,9 C 85 % 1030,7 hPa 0,0 l/m 0 min 0 min 0 W/m 8,4 km/h (2 Bft)
07.02.2015 02:38 -2,2 C -3,9 C 84 % 1030,7 hPa 0,0 l/m 0 min 0 min 0 W/m 8,4 km/h (2 Bft)
07.02.2015 02:40 -2,2 C -3,9 C 84 % 1030,6 hPa 0,0 l/m 0 min 0 min 0 W/m 6,3 km/h (2 Bft)
07.02.2015 02:42 -2,2 C -3,9 C 84 % 1030,7 hPa 0,0 l/m 0 min 0 min 0 W/m 10,5 km/h (2 Bft)
07.02.2015 02:44 -2,3 C -3,9 C 84 % 1030,7 hPa 0,0 l/m 0 min 0 min 0 W/m 6,3 km/h (2 Bft)
07.02.2015 02:46 -2,3 C -3,9 C 84 % 1030,7 hPa 0,0 l/m 0 min 0 min 0 W/m 6,3 km/h (2 Bft)
07.02.2015 02:48 -2,3 C -4,4 C 84 % 1030,7 hPa 0,0 l/m 0 min 0 min 0 W/m 8,4 km/h (2 Bft)
07.02.2015 02:50 -2,3 C -4,4 C 84 % 1030,7 hPa 0,0 l/m 0 min 0 min 0 W/m 8,4 km/h (2 Bft)
07.02.2015 02:52 -2,3 C -4,4 C 84 % 1030,7 hPa 0,0 l/m 0 min 0 min 0 W/m 8,4 km/h (2 Bft)
07.02.2015 02:54 -2,3 C -4,4 C 84 % 1030,7 hPa 0,0 l/m 0 min 0 min 0 W/m 12,6 km/h (3 Bft)
07.02.2015 02:56 -2,3 C -4,4 C 84 % 1030,7 hPa 0,0 l/m 0 min 0 min 0 W/m 14,6 km/h (3 Bft)
07.02.2015 02:58 -2,4 C -4,4 C 84 % 1030,7 hPa 0,0 l/m 0 min 0 min 0 W/m 10,5 km/h (2 Bft)
07.02.2015 03:00 -2,4 C -4,4 C 84 % 1030,7 hPa 0,0 l/m 0 min 0 min 0 W/m 16,7 km/h (3 Bft)
07.02.2015 03:02 -2,4 C -4,4 C 84 % 1030,7 hPa 0,0 l/m 0 min 0 min 0 W/m 12,6 km/h (3 Bft)
07.02.2015 03:04 -2,4 C -4,4 C 84 % 1030,7 hPa 0,0 l/m 0 min 0 min 0 W/m 14,6 km/h (3 Bft)
07.02.2015 03:06 -2,4 C -3,9 C 85 % 1030,7 hPa 0,0 l/m 0 min 0 min 0 W/m 12,6 km/h (3 Bft)
07.02.2015 03:08 -2,4 C -3,9 C 85 % 1030,6 hPa 0,0 l/m 0 min 0 min 0 W/m 18,8 km/h (3 Bft)
07.02.2015 03:10 -2,5 C -3,9 C 85 % 1030,6 hPa 0,0 l/m 0 min 0 min 0 W/m 14,6 km/h (3 Bft)
07.02.2015 03:12 -2,4 C -3,9 C 85 % 1030,7 hPa 0,0 l/m 0 min 0 min 0 W/m 16,7 km/h (3 Bft)
07.02.2015 03:14 -2,4 C -3,9 C 85 % 1030,7 hPa 0,0 l/m 0 min 0 min 0 W/m 14,6 km/h (3 Bft)
07.02.2015 03:16 -2,4 C -3,9 C 85 % 1030,6 hPa 0,0 l/m 0 min 0 min 0 W/m 16,7 km/h (3 Bft)
07.02.2015 03:18 -2,4 C -3,9 C 85 % 1030,7 hPa 0,0 l/m 0 min 0 min 0 W/m 14,6 km/h (3 Bft)
07.02.2015 03:20 -2,4 C -3,9 C 85 % 1030,6 hPa 0,0 l/m 0 min 0 min 0 W/m 16,7 km/h (3 Bft)
07.02.2015 03:22 -2,4 C -3,9 C 85 % 1030,6 hPa 0,0 l/m 0 min 0 min 0 W/m 16,7 km/h (3 Bft)
07.02.2015 03:24 -2,4 C -3,9 C 85 % 1030,6 hPa 0,0 l/m 0 min 0 min 0 W/m 16,7 km/h (3 Bft)
07.02.2015 03:26 -2,4 C -3,9 C 85 % 1030,6 hPa 0,0 l/m 0 min 0 min 0 W/m 14,6 km/h (3 Bft)
07.02.2015 03:28 -2,4 C -3,9 C 85 % 1030,6 hPa 0,0 l/m 0 min 0 min 0 W/m 14,6 km/h (3 Bft)
07.02.2015 03:30 -2,4 C -3,9 C 85 % 1030,7 hPa 0,0 l/m 0 min 0 min 0 W/m 14,6 km/h (3 Bft)
07.02.2015 03:32 -2,4 C -3,9 C 85 % 1030,7 hPa 0,0 l/m 0 min 0 min 0 W/m 12,6 km/h (3 Bft)
07.02.2015 03:34 -2,4 C -4,4 C 85 % 1030,7 hPa 0,0 l/m 0 min 0 min 0 W/m 12,6 km/h (3 Bft)
07.02.2015 03:36 -2,4 C -3,9 C 85 % 1030,7 hPa 0,0 l/m 0 min 0 min 0 W/m 16,7 km/h (3 Bft)
07.02.2015 03:38 -2,4 C -3,9 C 85 % 1030,7 hPa 0,0 l/m 0 min 0 min 0 W/m 14,6 km/h (3 Bft)
07.02.2015 03:40 -2,4 C -3,9 C 85 % 1030,7 hPa 0,0 l/m 0 min 0 min 0 W/m 12,6 km/h (3 Bft)
07.02.2015 03:42 -2,5 C -3,9 C 85 % 1030,8 hPa 0,0 l/m 0 min 0 min 0 W/m 12,6 km/h (3 Bft)
07.02.2015 03:44 -2,5 C -3,9 C 85 % 1030,8 hPa 0,0 l/m 0 min 0 min 0 W/m 14,6 km/h (3 Bft)
07.02.2015 03:46 -2,5 C -3,9 C 85 % 1030,8 hPa 0,0 l/m 0 min 0 min 0 W/m 12,6 km/h (3 Bft)
07.02.2015 03:48 -2,5 C -3,9 C 85 % 1030,8 hPa 0,0 l/m 0 min 0 min 0 W/m 16,7 km/h (3 Bft)
07.02.2015 03:50 -2,5 C -3,9 C 85 % 1030,7 hPa 0,0 l/m 0 min 0 min 0 W/m 12,6 km/h (3 Bft)
07.02.2015 03:52 -2,5 C -3,9 C 85 % 1030,7 hPa 0,0 l/m 0 min 0 min 0 W/m 14,6 km/h (3 Bft)
07.02.2015 03:54 -2,4 C -3,9 C 85 % 1030,7 hPa 0,0 l/m 0 min 0 min 0 W/m 18,8 km/h (3 Bft)
07.02.2015 03:56 -2,4 C -3,9 C 85 % 1030,7 hPa 0,0 l/m 0 min 0 min 0 W/m 14,6 km/h (3 Bft)
07.02.2015 03:58 -2,4 C -3,9 C 85 % 1030,7 hPa 0,0 l/m 0 min 0 min 0 W/m 14,6 km/h (3 Bft)
07.02.2015 04:00 -2,4 C -3,9 C 85 % 1030,7 hPa 0,0 l/m 0 min 0 min 0 W/m 12,6 km/h (3 Bft)
07.02.2015 04:02 -2,4 C -3,9 C 85 % 1030,7 hPa 0,0 l/m 0 min 0 min 0 W/m 14,6 km/h (3 Bft)
07.02.2015 04:04 -2,4 C -3,9 C 85 % 1030,7 hPa 0,0 l/m 0 min 0 min 0 W/m 8,4 km/h (2 Bft)
07.02.2015 04:06 -2,4 C -3,9 C 85 % 1030,7 hPa 0,0 l/m 0 min 0 min 0 W/m 12,6 km/h (3 Bft)
07.02.2015 04:08 -2,4 C -3,9 C 85 % 1030,6 hPa 0,0 l/m 0 min 0 min 0 W/m 10,5 km/h (2 Bft)
07.02.2015 04:10 -2,4 C -3,9 C 85 % 1030,5 hPa 0,0 l/m 0 min 0 min 0 W/m 8,4 km/h (2 Bft)
07.02.2015 04:12 -2,4 C -3,9 C 85 % 1030,5 hPa 0,0 l/m 0 min 0 min 0 W/m 10,5 km/h (2 Bft)
07.02.2015 04:14 -2,4 C -3,9 C 85 % 1030,5 hPa 0,0 l/m 0 min 0 min 0 W/m 10,5 km/h (2 Bft)
07.02.2015 04:16 -2,4 C -3,9 C 85 % 1030,5 hPa 0,0 l/m 0 min 0 min 0 W/m 8,4 km/h (2 Bft)
07.02.2015 04:18 -2,4 C -3,9 C 85 % 1030,5 hPa 0,0 l/m 0 min 0 min 0 W/m 8,4 km/h (2 Bft)
07.02.2015 04:20 -2,4 C -3,9 C 85 % 1030,6 hPa 0,0 l/m 0 min 0 min 0 W/m 8,4 km/h (2 Bft)
07.02.2015 04:22 -2,4 C -3,9 C 85 % 1030,7 hPa 0,0 l/m 0 min 0 min 0 W/m 6,3 km/h (2 Bft)
07.02.2015 04:24 -2,4 C -3,9 C 85 % 1030,7 hPa 0,0 l/m 0 min 0 min 0 W/m 8,4 km/h (2 Bft)
07.02.2015 04:26 -2,4 C -3,9 C 85 % 1030,6 hPa 0,0 l/m 0 min 0 min 0 W/m 4,2 km/h (1 Bft)
07.02.2015 04:28 -2,4 C -4,4 C 85 % 1030,5 hPa 0,0 l/m 0 min 0 min 0 W/m 4,2 km/h (1 Bft)
07.02.2015 04:30 -2,4 C -4,4 C 85 % 1030,5 hPa 0,0 l/m 0 min 0 min 0 W/m 8,4 km/h (2 Bft)
07.02.2015 04:32 -2,5 C -4,4 C 85 % 1030,5 hPa 0,0 l/m 0 min 0 min 0 W/m 6,3 km/h (2 Bft)
07.02.2015 04:34 -2,5 C -4,4 C 85 % 1030,5 hPa 0,0 l/m 0 min 0 min 0 W/m 4,2 km/h (1 Bft)
07.02.2015 04:36 -2,5 C -4,4 C 85 % 1030,6 hPa 0,0 l/m 0 min 0 min 0 W/m 6,3 km/h (2 Bft)
07.02.2015 04:38 -2,5 C -5,0 C 85 % 1030,6 hPa 0,0 l/m 0 min 0 min 0 W/m 4,2 km/h (1 Bft)
07.02.2015 04:40 -2,6 C -5,0 C 85 % 1030,6 hPa 0,0 l/m 0 min 0 min 0 W/m 6,3 km/h (2 Bft)
07.02.2015 04:42 -2,6 C -5,0 C 85 % 1030,6 hPa 0,0 l/m 0 min 0 min 0 W/m 6,3 km/h (2 Bft)
07.02.2015 04:44 -2,6 C -5,0 C 85 % 1030,6 hPa 0,0 l/m 0 min 0 min 0 W/m 6,3 km/h (2 Bft)
07.02.2015 04:46 -2,6 C -5,0 C 85 % 1030,6 hPa 0,0 l/m 0 min 0 min 0 W/m 4,2 km/h (1 Bft)
07.02.2015 04:48 -2,6 C -5,0 C 85 % 1030,6 hPa 0,0 l/m 0 min 0 min 0 W/m 4,2 km/h (1 Bft)
07.02.2015 04:50 -2,7 C -5,0 C 85 % 1030,6 hPa 0,0 l/m 0 min 0 min 0 W/m 2,1 km/h (1 Bft)
07.02.2015 04:52 -2,7 C -5,0 C 85 % 1030,6 hPa 0,0 l/m 0 min 0 min 0 W/m 4,2 km/h (1 Bft)
07.02.2015 04:54 -2,7 C -5,0 C 85 % 1030,6 hPa 0,0 l/m 0 min 0 min 0 W/m 2,1 km/h (1 Bft)
07.02.2015 04:56 -2,8 C -5,0 C 85 % 1030,6 hPa 0,0 l/m 0 min 0 min 0 W/m 4,2 km/h (1 Bft)
07.02.2015 04:58 -2,8 C -5,0 C 85 % 1030,6 hPa 0,0 l/m 0 min 0 min 0 W/m 4,2 km/h (1 Bft)
07.02.2015 05:00 -2,8 C -5,0 C 85 % 1030,6 hPa 0,0 l/m 0 min 0 min 0 W/m 8,4 km/h (2 Bft)
07.02.2015 05:02 -2,9 C -5,0 C 85 % 1030,7 hPa 0,0 l/m 0 min 0 min 0 W/m 4,2 km/h (1 Bft)
07.02.2015 05:04 -2,9 C -5,0 C 85 % 1030,6 hPa 0,0 l/m 0 min 0 min 0 W/m 4,2 km/h (1 Bft)
07.02.2015 05:06 -2,9 C -5,0 C 85 % 1030,6 hPa 0,0 l/m 0 min 0 min 0 W/m 4,2 km/h (1 Bft)
07.02.2015 05:08 -3,0 C -5,0 C 85 % 1030,6 hPa 0,0 l/m 0 min 0 min 0 W/m 8,4 km/h (2 Bft)
07.02.2015 05:10 -3,1 C -5,0 C 85 % 1030,6 hPa 0,0 l/m 0 min 0 min 0 W/m 2,1 km/h (1 Bft)
07.02.2015 05:12 -3,1 C -5,0 C 85 % 1030,6 hPa 0,0 l/m 0 min 0 min 0 W/m 4,2 km/h (1 Bft)
07.02.2015 05:14 -3,1 C -5,0 C 85 % 1030,6 hPa 0,0 l/m 0 min 0 min 0 W/m 4,2 km/h (1 Bft)
07.02.2015 05:16 -3,1 C -5,0 C 85 % 1030,6 hPa 0,0 l/m 0 min 0 min 0 W/m 6,3 km/h (2 Bft)
07.02.2015 05:18 -3,2 C -5,0 C 85 % 1030,6 hPa 0,0 l/m 0 min 0 min 0 W/m 8,4 km/h (2 Bft)
07.02.2015 05:20 -3,2 C -5,0 C 85 % 1030,6 hPa 0,0 l/m 0 min 0 min 0 W/m 6,3 km/h (2 Bft)
07.02.2015 05:22 -3,2 C -5,0 C 85 % 1030,6 hPa 0,0 l/m 0 min 0 min 0 W/m 4,2 km/h (1 Bft)
07.02.2015 05:24 -3,2 C -5,0 C 85 % 1030,6 hPa 0,0 l/m 0 min 0 min 0 W/m 4,2 km/h (1 Bft)
07.02.2015 05:26 -3,3 C -5,6 C 85 % 1030,5 hPa 0,0 l/m 0 min 0 min 0 W/m 6,3 km/h (2 Bft)
07.02.2015 05:28 -3,3 C -5,6 C 85 % 1030,6 hPa 0,0 l/m 0 min 0 min 0 W/m 4,2 km/h (1 Bft)
07.02.2015 05:30 -3,3 C -5,6 C 85 % 1030,6 hPa 0,0 l/m 0 min 0 min 0 W/m 4,2 km/h (1 Bft)
07.02.2015 05:32 -3,3 C -5,6 C 85 % 1030,6 hPa 0,0 l/m 0 min 0 min 0 W/m 4,2 km/h (1 Bft)
07.02.2015 05:34 -3,4 C -5,6 C 85 % 1030,6 hPa 0,0 l/m 0 min 0 min 0 W/m 6,3 km/h (2 Bft)
07.02.2015 05:36 -3,4 C -5,6 C 85 % 1030,6 hPa 0,0 l/m 0 min 0 min 0 W/m 4,2 km/h (1 Bft)
07.02.2015 05:38 -3,4 C -5,6 C 85 % 1030,6 hPa 0,0 l/m 0 min 0 min 0 W/m 4,2 km/h (1 Bft)
07.02.2015 05:40 -3,4 C -5,6 C 85 % 1030,6 hPa 0,0 l/m 0 min 0 min 0 W/m 4,2 km/h (1 Bft)
07.02.2015 05:42 -3,5 C -5,6 C 85 % 1030,6 hPa 0,0 l/m 0 min 0 min 0 W/m 6,3 km/h (2 Bft)
07.02.2015 05:44 -3,5 C -5,6 C 85 % 1030,6 hPa 0,0 l/m 0 min 0 min 0 W/m 6,3 km/h (2 Bft)
07.02.2015 05:46 -3,6 C -5,6 C 85 % 1030,6 hPa 0,0 l/m 0 min 0 min 0 W/m 4,2 km/h (1 Bft)
07.02.2015 05:48 -3,6 C -5,6 C 85 % 1030,6 hPa 0,0 l/m 0 min 0 min 0 W/m 6,3 km/h (2 Bft)
07.02.2015 05:50 -3,6 C -5,6 C 85 % 1030,7 hPa 0,0 l/m 0 min 0 min 0 W/m 4,2 km/h (1 Bft)
07.02.2015 05:52 -3,6 C -5,6 C 85 % 1030,7 hPa 0,0 l/m 0 min 0 min 0 W/m 6,3 km/h (2 Bft)
07.02.2015 05:54 -3,7 C -5,6 C 86 % 1030,7 hPa 0,0 l/m 0 min 0 min 0 W/m 6,3 km/h (2 Bft)
07.02.2015 05:56 -3,7 C -5,0 C 86 % 1030,7 hPa 0,0 l/m 0 min 0 min 0 W/m 4,2 km/h (1 Bft)
07.02.2015 05:58 -3,7 C -5,0 C 86 % 1030,7 hPa 0,0 l/m 0 min 0 min 0 W/m 4,2 km/h (1 Bft)
07.02.2015 06:00 -3,7 C -5,0 C 86 % 1030,6 hPa 0,0 l/m 0 min 0 min 0 W/m 4,2 km/h (1 Bft)
07.02.2015 06:02 -3,7 C -5,0 C 86 % 1030,6 hPa 0,0 l/m 0 min 0 min 0 W/m 4,2 km/h (1 Bft)
07.02.2015 06:05 -3,7 C -5,0 C 86 % 1030,6 hPa 0,0 l/m 0 min 0 min 0 W/m 6,3 km/h (2 Bft)
07.02.2015 06:06 -3,7 C -5,0 C 86 % 1030,6 hPa 0,0 l/m 0 min 0 min 0 W/m 6,3 km/h (2 Bft)
07.02.2015 06:08 -3,7 C -5,0 C 86 % 1030,6 hPa 0,0 l/m 0 min 0 min 0 W/m 6,3 km/h (2 Bft)
07.02.2015 06:10 -3,7 C -5,0 C 87 % 1030,6 hPa 0,0 l/m 0 min 0 min 0 W/m 6,3 km/h (2 Bft)
07.02.2015 06:12 -3,7 C -5,0 C 87 % 1030,6 hPa 0,0 l/m 0 min 0 min 0 W/m 6,3 km/h (2 Bft)
07.02.2015 06:14 -3,7 C -5,0 C 87 % 1030,6 hPa 0,0 l/m 0 min 0 min 0 W/m 8,4 km/h (2 Bft)
07.02.2015 06:16 -3,7 C -5,0 C 87 % 1030,6 hPa 0,0 l/m 0 min 0 min 0 W/m 6,3 km/h (2 Bft)
07.02.2015 06:18 -3,7 C -5,0 C 87 % 1030,6 hPa 0,0 l/m 0 min 0 min 0 W/m 6,3 km/h (2 Bft)
07.02.2015 06:20 -3,7 C -5,0 C 87 % 1030,6 hPa 0,0 l/m 0 min 0 min 0 W/m 4,2 km/h (1 Bft)
07.02.2015 06:22 -3,7 C -5,0 C 87 % 1030,6 hPa 0,0 l/m 0 min 0 min 0 W/m 6,3 km/h (2 Bft)
07.02.2015 06:24 -3,7 C -5,0 C 87 % 1030,7 hPa 0,0 l/m 0 min 0 min 0 W/m 6,3 km/h (2 Bft)
07.02.2015 06:26 -3,7 C -5,0 C 87 % 1030,6 hPa 0,0 l/m 0 min 0 min 0 W/m 6,3 km/h (2 Bft)
07.02.2015 06:28 -3,7 C -5,0 C 87 % 1030,7 hPa 0,0 l/m 0 min 0 min 0 W/m 8,4 km/h (2 Bft)
07.02.2015 06:30 -3,7 C -5,0 C 87 % 1030,6 hPa 0,0 l/m 0 min 0 min 0 W/m 6,3 km/h (2 Bft)
07.02.2015 06:32 -3,7 C -5,0 C 88 % 1030,6 hPa 0,0 l/m 0 min 0 min 0 W/m 6,3 km/h (2 Bft)
07.02.2015 06:34 -3,7 C -5,0 C 87 % 1030,6 hPa 0,0 l/m 0 min 0 min 0 W/m 4,2 km/h (1 Bft)
07.02.2015 06:36 -3,7 C -5,0 C 88 % 1030,6 hPa 0,0 l/m 0 min 0 min 0 W/m 6,3 km/h (2 Bft)
07.02.2015 06:38 -3,7 C -5,0 C 88 % 1030,6 hPa 0,0 l/m 0 min 0 min 0 W/m 6,3 km/h (2 Bft)
07.02.2015 06:40 -3,7 C -5,0 C 88 % 1030,6 hPa 0,0 l/m 0 min 0 min 0 W/m 6,3 km/h (2 Bft)
07.02.2015 06:42 -3,7 C -5,0 C 88 % 1030,5 hPa 0,0 l/m 0 min 0 min 0 W/m 6,3 km/h (2 Bft)
07.02.2015 06:44 -3,7 C -5,0 C 88 % 1030,4 hPa 0,0 l/m 0 min 0 min 0 W/m 4,2 km/h (1 Bft)
07.02.2015 06:46 -3,8 C -5,6 C 88 % 1030,6 hPa 0,0 l/m 0 min 0 min 0 W/m 6,3 km/h (2 Bft)
07.02.2015 06:48 -3,8 C -5,6 C 88 % 1030,6 hPa 0,0 l/m 0 min 0 min 0 W/m 6,3 km/h (2 Bft)
07.02.2015 06:50 -3,8 C -5,6 C 88 % 1030,6 hPa 0,0 l/m 0 min 0 min 0 W/m 6,3 km/h (2 Bft)
07.02.2015 06:52 -3,8 C -5,0 C 88 % 1030,6 hPa 0,0 l/m 0 min 0 min 0 W/m 6,3 km/h (2 Bft)
07.02.2015 06:54 -3,8 C -5,0 C 88 % 1030,6 hPa 0,0 l/m 0 min 0 min 0 W/m 10,5 km/h (2 Bft)
07.02.2015 06:56 -3,8 C -5,0 C 88 % 1030,6 hPa 0,0 l/m 0 min 0 min 0 W/m 12,6 km/h (3 Bft)
07.02.2015 06:58 -3,8 C -5,0 C 88 % 1030,6 hPa 0,0 l/m 0 min 0 min 0 W/m 10,5 km/h (2 Bft)
07.02.2015 07:00 -3,8 C -4,4 C 88 % 1030,6 hPa 0,0 l/m 0 min 0 min 0 W/m 12,6 km/h (3 Bft)
07.02.2015 07:02 -3,7 C -4,4 C 89 % 1030,7 hPa 0,0 l/m 0 min 0 min 0 W/m 14,6 km/h (3 Bft)
07.02.2015 07:04 -3,7 C -4,4 C 88 % 1030,6 hPa 0,0 l/m 0 min 0 min 0 W/m 14,6 km/h (3 Bft)
07.02.2015 07:06 -3,7 C -4,4 C 89 % 1030,6 hPa 0,0 l/m 0 min 0 min 0 W/m 16,7 km/h (3 Bft)
07.02.2015 07:08 -3,7 C -4,4 C 89 % 1030,6 hPa 0,0 l/m 0 min 0 min 0 W/m 14,6 km/h (3 Bft)
07.02.2015 07:10 -3,6 C -4,4 C 89 % 1030,7 hPa 0,0 l/m 0 min 0 min 0 W/m 14,6 km/h (3 Bft)
07.02.2015 07:12 -3,6 C -4,4 C 89 % 1030,8 hPa 0,0 l/m 0 min 0 min 0 W/m 14,6 km/h (3 Bft)
07.02.2015 07:14 -3,6 C -4,4 C 89 % 1030,8 hPa 0,0 l/m 0 min 0 min 0 W/m 16,7 km/h (3 Bft)
07.02.2015 07:16 -3,5 C -4,4 C 89 % 1030,8 hPa 0,0 l/m 0 min 0 min 0 W/m 16,7 km/h (3 Bft)
07.02.2015 07:18 -3,5 C -4,4 C 89 % 1030,8 hPa 0,0 l/m 0 min 0 min 0 W/m 14,6 km/h (3 Bft)
07.02.2015 07:20 -3,4 C -4,4 C 89 % 1030,8 hPa 0,0 l/m 0 min 0 min 0 W/m 12,6 km/h (3 Bft)
07.02.2015 07:22 -3,4 C -4,4 C 89 % 1030,8 hPa 0,0 l/m 0 min 0 min 0 W/m 16,7 km/h (3 Bft)
07.02.2015 07:24 -3,4 C -4,4 C 89 % 1030,8 hPa 0,0 l/m 0 min 0 min 0 W/m 14,6 km/h (3 Bft)
07.02.2015 07:26 -3,4 C -4,4 C 89 % 1030,9 hPa 0,0 l/m 0 min 0 min 0 W/m 12,6 km/h (3 Bft)
07.02.2015 07:28 -3,3 C -4,4 C 89 % 1030,9 hPa 0,0 l/m 0 min 0 min 0 W/m 6,3 km/h (2 Bft)
07.02.2015 07:30 -3,3 C -4,4 C 89 % 1030,9 hPa 0,0 l/m 0 min 0 min 0 W/m 6,3 km/h (2 Bft)
07.02.2015 07:32 -3,3 C -4,4 C 89 % 1031,0 hPa 0,0 l/m 0 min 0 min 0 W/m 6,3 km/h (2 Bft)
07.02.2015 07:34 -3,3 C -4,4 C 89 % 1031,0 hPa 0,0 l/m 0 min 0 min 0 W/m 8,4 km/h (2 Bft)
07.02.2015 07:36 -3,3 C -4,4 C 89 % 1031,0 hPa 0,0 l/m 0 min 0 min 0 W/m 6,3 km/h (2 Bft)
07.02.2015 07:38 -3,3 C -4,4 C 89 % 1031,1 hPa 0,0 l/m 0 min 0 min 0 W/m 8,4 km/h (2 Bft)
07.02.2015 07:40 -3,3 C -4,4 C 89 % 1031,2 hPa 0,0 l/m 0 min 0 min 0 W/m 10,5 km/h (2 Bft)
07.02.2015 07:42 -3,3 C -4,4 C 89 % 1031,2 hPa 0,0 l/m 0 min 0 min 0 W/m 8,4 km/h (2 Bft)
07.02.2015 07:44 -3,4 C -4,4 C 89 % 1031,3 hPa 0,0 l/m 0 min 0 min 0 W/m 8,4 km/h (2 Bft)
07.02.2015 07:46 -3,4 C -4,4 C 89 % 1031,3 hPa 0,0 l/m 0 min 0 min 0 W/m 8,4 km/h (2 Bft)
07.02.2015 07:48 -3,4 C -4,4 C 89 % 1031,3 hPa 0,0 l/m 0 min 0 min 0 W/m 8,4 km/h (2 Bft)
07.02.2015 07:50 -3,4 C -4,4 C 89 % 1031,4 hPa 0,0 l/m 0 min 0 min 0 W/m 8,4 km/h (2 Bft)
07.02.2015 07:52 -3,4 C -4,4 C 89 % 1031,4 hPa 0,0 l/m 0 min 0 min 0 W/m 10,5 km/h (2 Bft)
07.02.2015 07:54 -3,4 C -4,4 C 89 % 1031,4 hPa 0,0 l/m 0 min 0 min 0 W/m 10,5 km/h (2 Bft)
07.02.2015 07:56 -3,4 C -4,4 C 89 % 1031,4 hPa 0,0 l/m 0 min 0 min 0 W/m 10,5 km/h (2 Bft)
07.02.2015 07:58 -3,4 C -4,4 C 89 % 1031,5 hPa 0,0 l/m 0 min 0 min 4 W/m 12,6 km/h (3 Bft)
07.02.2015 08:00 -3,5 C -4,4 C 89 % 1031,5 hPa 0,0 l/m 0 min 0 min 5 W/m 14,6 km/h (3 Bft)
07.02.2015 08:02 -3,5 C -4,4 C 89 % 1031,6 hPa 0,0 l/m 0 min 0 min 5 W/m 10,5 km/h (2 Bft)
07.02.2015 08:04 -3,5 C -4,4 C 89 % 1031,6 hPa 0,0 l/m 0 min 0 min 6 W/m 8,4 km/h (2 Bft)
07.02.2015 08:06 -3,5 C -4,4 C 89 % 1031,6 hPa 0,0 l/m 0 min 0 min 7 W/m 10,5 km/h (2 Bft)
07.02.2015 08:08 -3,5 C -4,4 C 89 % 1031,6 hPa 0,0 l/m 0 min 0 min 7 W/m 12,6 km/h (3 Bft)
07.02.2015 08:10 -3,5 C -4,4 C 89 % 1031,6 hPa 0,0 l/m 0 min 0 min 9 W/m 12,6 km/h (3 Bft)
07.02.2015 08:12 -3,5 C -4,4 C 89 % 1031,6 hPa 0,0 l/m 0 min 0 min 11 W/m 14,6 km/h (3 Bft)
07.02.2015 08:14 -3,5 C -4,4 C 89 % 1031,6 hPa 0,0 l/m 0 min 0 min 11 W/m 12,6 km/h (3 Bft)
07.02.2015 08:16 -3,5 C -4,4 C 89 % 1031,6 hPa 0,0 l/m 2 min 0 min 12 W/m 12,6 km/h (3 Bft)
07.02.2015 08:18 -3,5 C -4,4 C 89 % 1031,6 hPa 0,0 l/m 2 min 0 min 14 W/m 12,6 km/h (3 Bft)
07.02.2015 08:20 -3,4 C -4,4 C 89 % 1031,6 hPa 0,0 l/m 2 min 0 min 15 W/m 8,4 km/h (2 Bft)
07.02.2015 08:22 -3,4 C -4,4 C 89 % 1031,7 hPa 0,0 l/m 2 min 0 min 17 W/m 12,6 km/h (3 Bft)
07.02.2015 08:24 -3,4 C -4,4 C 89 % 1031,7 hPa 0,0 l/m 0 min 0 min 18 W/m 10,5 km/h (2 Bft)
07.02.2015 08:26 -3,4 C -4,4 C 89 % 1031,7 hPa 0,0 l/m 0 min 0 min 19 W/m 12,6 km/h (3 Bft)
07.02.2015 08:28 -3,4 C -4,4 C 89 % 1031,7 hPa 0,0 l/m 0 min 0 min 21 W/m 10,5 km/h (2 Bft)
07.02.2015 08:30 -3,4 C -4,4 C 89 % 1031,7 hPa 0,0 l/m 0 min 0 min 23 W/m 8,4 km/h (2 Bft)
07.02.2015 08:32 -3,4 C -4,4 C 89 % 1031,7 hPa 0,0 l/m 0 min 0 min 26 W/m 8,4 km/h (2 Bft)
07.02.2015 08:34 -3,4 C -4,4 C 89 % 1031,7 hPa 0,0 l/m 0 min 0 min 28 W/m 8,4 km/h (2 Bft)
07.02.2015 08:36 -3,5 C -4,4 C 89 % 1031,7 hPa 0,0 l/m 0 min 0 min 30 W/m 8,4 km/h (2 Bft)
07.02.2015 08:38 -3,5 C -4,4 C 89 % 1031,8 hPa 0,0 l/m 0 min 0 min 33 W/m 10,5 km/h (2 Bft)
07.02.2015 08:40 -3,4 C -4,4 C 89 % 1031,8 hPa 0,0 l/m 0 min 0 min 35 W/m 8,4 km/h (2 Bft)
07.02.2015 08:42 -3,4 C -4,4 C 89 % 1031,8 hPa 0,0 l/m 0 min 0 min 40 W/m 6,3 km/h (2 Bft)
07.02.2015 08:44 -3,4 C -4,4 C 90 % 1031,8 hPa 0,0 l/m 0 min 0 min 42 W/m 6,3 km/h (2 Bft)
07.02.2015 08:46 -3,4 C -4,4 C 90 % 1031,9 hPa 0,0 l/m 2 min 0 min 46 W/m 4,2 km/h (1 Bft)
07.02.2015 08:48 -3,4 C -4,4 C 90 % 1032,0 hPa 0,0 l/m 2 min 0 min 48 W/m 6,3 km/h (2 Bft)
07.02.2015 08:50 -3,4 C -4,4 C 90 % 1032,0 hPa 0,0 l/m 2 min 0 min 52 W/m 8,4 km/h (2 Bft)
07.02.2015 08:52 -3,4 C -4,4 C 90 % 1032,0 hPa 0,0 l/m 2 min 0 min 54 W/m 8,4 km/h (2 Bft)
07.02.2015 08:54 -3,4 C -4,4 C 90 % 1032,1 hPa 0,0 l/m 2 min 0 min 57 W/m 8,4 km/h (2 Bft)
07.02.2015 08:56 -3,4 C -4,4 C 90 % 1032,0 hPa 0,0 l/m 2 min 0 min 60 W/m 6,3 km/h (2 Bft)
07.02.2015 08:58 -3,4 C -4,4 C 90 % 1032,1 hPa 0,0 l/m 2 min 0 min 61 W/m 6,3 km/h (2 Bft)
07.02.2015 09:00 -3,3 C -3,9 C 90 % 1032,1 hPa 0,0 l/m 2 min 0 min 64 W/m 6,3 km/h (2 Bft)
07.02.2015 09:02 -3,3 C -3,9 C 90 % 1032,1 hPa 0,0 l/m 2 min 0 min 70 W/m 10,5 km/h (2 Bft)
07.02.2015 09:04 -3,3 C -3,9 C 90 % 1032,1 hPa 0,0 l/m 2 min 0 min 77 W/m 6,3 km/h (2 Bft)
07.02.2015 09:06 -3,3 C -3,9 C 90 % 1032,1 hPa 0,0 l/m 2 min 0 min 81 W/m 8,4 km/h (2 Bft)
07.02.2015 09:08 -3,3 C -3,9 C 90 % 1032,1 hPa 0,0 l/m 2 min 0 min 84 W/m 12,6 km/h (3 Bft)
07.02.2015 09:10 -3,2 C -3,9 C 90 % 1032,1 hPa 0,0 l/m 2 min 0 min 89 W/m 12,6 km/h (3 Bft)
07.02.2015 09:12 -3,2 C -3,9 C 90 % 1032,1 hPa 0,0 l/m 2 min 0 min 94 W/m 8,4 km/h (2 Bft)
07.02.2015 09:14 -3,2 C -3,9 C 90 % 1032,1 hPa 0,0 l/m 2 min 0 min 100 W/m 6,3 km/h (2 Bft)
07.02.2015 09:16 -3,2 C -3,9 C 90 % 1032,1 hPa 0,0 l/m 2 min 0 min 104 W/m 4,2 km/h (1 Bft)
07.02.2015 09:18 -3,1 C -3,9 C 90 % 1032,1 hPa 0,0 l/m 2 min 0 min 108 W/m 8,4 km/h (2 Bft)
07.02.2015 09:20 -3,1 C -3,9 C 90 % 1032,0 hPa 0,0 l/m 2 min 0 min 113 W/m 6,3 km/h (2 Bft)
07.02.2015 09:22 -3,1 C -3,9 C 90 % 1032,0 hPa 0,0 l/m 2 min 0 min 117 W/m 2,1 km/h (1 Bft)
07.02.2015 09:24 -3,1 C -3,9 C 90 % 1032,0 hPa 0,0 l/m 2 min 0 min 119 W/m 4,2 km/h (1 Bft)
07.02.2015 09:26 -3,1 C -3,9 C 90 % 1032,0 hPa 0,0 l/m 2 min 0 min 127 W/m 6,3 km/h (2 Bft)
07.02.2015 09:28 -3,1 C -3,9 C 90 % 1032,0 hPa 0,0 l/m 2 min 0 min 133 W/m 4,2 km/h (1 Bft)
07.02.2015 09:30 -3,0 C -3,9 C 90 % 1032,0 hPa 0,0 l/m 2 min 0 min 137 W/m 4,2 km/h (1 Bft)
07.02.2015 09:32 -3,0 C -3,9 C 90 % 1032,0 hPa 0,0 l/m 2 min 0 min 142 W/m 6,3 km/h (2 Bft)
07.02.2015 09:34 -3,0 C -3,9 C 90 % 1032,0 hPa 0,0 l/m 2 min 0 min 147 W/m 4,2 km/h (1 Bft)
07.02.2015 09:36 -2,9 C -3,3 C 90 % 1032,0 hPa 0,0 l/m 2 min 0 min 153 W/m 4,2 km/h (1 Bft)
07.02.2015 09:38 -2,9 C -3,3 C 90 % 1032,1 hPa 0,0 l/m 2 min 0 min 158 W/m 6,3 km/h (2 Bft)
07.02.2015 09:40 -2,8 C -3,3 C 90 % 1032,1 hPa 0,0 l/m 2 min 0 min 161 W/m 6,3 km/h (2 Bft)
07.02.2015 09:42 -2,8 C -3,3 C 91 % 1032,1 hPa 0,0 l/m 2 min 0 min 164 W/m 6,3 km/h (2 Bft)
07.02.2015 09:44 -2,8 C -3,3 C 90 % 1032,2 hPa 0,0 l/m 2 min 0 min 165 W/m 8,4 km/h (2 Bft)
07.02.2015 09:46 -2,7 C -3,3 C 90 % 1032,2 hPa 0,0 l/m 2 min 0 min 174 W/m 8,4 km/h (2 Bft)
07.02.2015 09:48 -2,7 C -3,3 C 90 % 1032,1 hPa 0,0 l/m 2 min 0 min 179 W/m 6,3 km/h (2 Bft)
07.02.2015 09:50 -2,6 C -3,3 C 91 % 1032,2 hPa 0,0 l/m 2 min 0 min 183 W/m 6,3 km/h (2 Bft)
07.02.2015 09:52 -2,6 C -3,3 C 91 % 1032,2 hPa 0,0 l/m 2 min 0 min 189 W/m 6,3 km/h (2 Bft)
07.02.2015 09:54 -2,5 C -2,8 C 91 % 1032,2 hPa 0,0 l/m 2 min 0 min 193 W/m 6,3 km/h (2 Bft)
07.02.2015 09:56 -2,4 C -2,8 C 91 % 1032,3 hPa 0,0 l/m 2 min 0 min 197 W/m 10,5 km/h (2 Bft)
07.02.2015 09:58 -2,3 C -2,8 C 91 % 1032,4 hPa 0,0 l/m 2 min 0 min 201 W/m 10,5 km/h (2 Bft)
07.02.2015 10:00 -2,3 C -2,8 C 91 % 1032,3 hPa 0,0 l/m 2 min 0 min 206 W/m 8,4 km/h (2 Bft)
07.02.2015 10:02 -2,2 C -2,8 C 91 % 1032,3 hPa 0,0 l/m 2 min 0 min 211 W/m 6,3 km/h (2 Bft)
07.02.2015 10:04 -2,2 C -2,8 C 91 % 1032,3 hPa 0,0 l/m 2 min 0 min 215 W/m 6,3 km/h (2 Bft)
07.02.2015 10:06 -2,1 C -2,8 C 91 % 1032,4 hPa 0,0 l/m 2 min 0 min 218 W/m 8,4 km/h (2 Bft)
07.02.2015 10:08 -2,1 C -2,8 C 91 % 1032,4 hPa 0,0 l/m 2 min 0 min 222 W/m 8,4 km/h (2 Bft)
07.02.2015 10:10 -1,9 C -2,8 C 90 % 1032,4 hPa 0,0 l/m 2 min 0 min 228 W/m 8,4 km/h (2 Bft)
07.02.2015 10:12 -1,9 C -2,2 C 91 % 1032,5 hPa 0,0 l/m 2 min 0 min 236 W/m 6,3 km/h (2 Bft)
07.02.2015 10:14 -1,8 C -2,8 C 90 % 1032,4 hPa 0,0 l/m 2 min 0 min 239 W/m 6,3 km/h (2 Bft)
07.02.2015 10:16 -1,8 C -2,8 C 90 % 1032,5 hPa 0,0 l/m 2 min 0 min 244 W/m 6,3 km/h (2 Bft)
07.02.2015 10:18 -1,7 C -2,2 C 90 % 1032,4 hPa 0,0 l/m 2 min 0 min 249 W/m 6,3 km/h (2 Bft)
07.02.2015 10:20 -1,6 C -2,2 C 90 % 1032,4 hPa 0,0 l/m 2 min 0 min 252 W/m 6,3 km/h (2 Bft)
07.02.2015 10:22 -1,5 C -2,2 C 90 % 1032,4 hPa 0,0 l/m 2 min 0 min 258 W/m 4,2 km/h (1 Bft)
07.02.2015 10:24 -1,4 C -2,2 C 90 % 1032,4 hPa 0,0 l/m 2 min 0 min 262 W/m 4,2 km/h (1 Bft)
07.02.2015 10:26 -1,3 C -2,2 C 90 % 1032,5 hPa 0,0 l/m 2 min 0 min 266 W/m 6,3 km/h (2 Bft)
07.02.2015 10:28 -1,3 C -2,2 C 90 % 1032,6 hPa 0,0 l/m 2 min 0 min 270 W/m 8,4 km/h (2 Bft)
07.02.2015 10:30 -1,2 C -2,2 C 90 % 1032,5 hPa 0,0 l/m 2 min 0 min 273 W/m 8,4 km/h (2 Bft)
07.02.2015 10:32 -1,1 C -2,2 C 90 % 1032,5 hPa 0,0 l/m 2 min 0 min 277 W/m 8,4 km/h (2 Bft)
07.02.2015 10:34 -1,1 C -2,2 C 89 % 1032,5 hPa 0,0 l/m 2 min 0 min 280 W/m 8,4 km/h (2 Bft)
07.02.2015 10:36 -1,0 C -2,2 C 89 % 1032,4 hPa 0,0 l/m 2 min 0 min 264 W/m 4,2 km/h (1 Bft)
07.02.2015 10:38 -0,9 C -2,2 C 89 % 1032,5 hPa 0,0 l/m 2 min 0 min 288 W/m 4,2 km/h (1 Bft)
07.02.2015 10:40 -0,9 C -1,7 C 89 % 1032,4 hPa 0,0 l/m 2 min 0 min 291 W/m 6,3 km/h (2 Bft)
07.02.2015 10:42 -0,8 C -2,2 C 88 % 1032,5 hPa 0,0 l/m 2 min 0 min 294 W/m 6,3 km/h (2 Bft)
07.02.2015 10:44 -0,7 C -1,7 C 88 % 1032,5 hPa 0,0 l/m 2 min 0 min 298 W/m 6,3 km/h (2 Bft)
07.02.2015 10:46 -0,7 C -1,7 C 88 % 1032,3 hPa 0,0 l/m 2 min 0 min 302 W/m 4,2 km/h (1 Bft)
07.02.2015 10:48 -0,6 C -1,7 C 88 % 1032,5 hPa 0,0 l/m 2 min 0 min 306 W/m 8,4 km/h (2 Bft)
07.02.2015 10:50 -0,5 C -1,7 C 87 % 1032,5 hPa 0,0 l/m 2 min 0 min 310 W/m 8,4 km/h (2 Bft)
07.02.2015 10:52 -0,4 C -1,7 C 87 % 1032,5 hPa 0,0 l/m 2 min 0 min 312 W/m 6,3 km/h (2 Bft)
07.02.2015 10:54 -0,4 C -1,7 C 86 % 1032,5 hPa 0,0 l/m 2 min 0 min 317 W/m 8,4 km/h (2 Bft)
07.02.2015 10:56 -0,3 C -1,1 C 86 % 1032,5 hPa 0,0 l/m 2 min 0 min 320 W/m 8,4 km/h (2 Bft)
07.02.2015 10:58 -0,2 C -1,1 C 86 % 1032,5 hPa 0,0 l/m 2 min 0 min 322 W/m 10,5 km/h (2 Bft)
07.02.2015 11:00 -0,2 C -1,1 C 86 % 1032,5 hPa 0,0 l/m 2 min 0 min 316 W/m 10,5 km/h (2 Bft)
07.02.2015 11:02 -0,1 C -1,1 C 85 % 1032,5 hPa 0,0 l/m 2 min 0 min 318 W/m 8,4 km/h (2 Bft)
07.02.2015 11:04 -0,1 C -1,1 C 85 % 1032,5 hPa 0,0 l/m 2 min 0 min 329 W/m 8,4 km/h (2 Bft)
07.02.2015 11:06 0,1 C -1,1 C 84 % 1032,5 hPa 0,0 l/m 2 min 0 min 332 W/m 8,4 km/h (2 Bft)
07.02.2015 11:08 0,1 C -1,1 C 84 % 1032,6 hPa 0,0 l/m 2 min 0 min 333 W/m 10,5 km/h (2 Bft)
07.02.2015 11:10 0,2 C -0,6 C 83 % 1032,6 hPa 0,0 l/m 2 min 0 min 333 W/m 6,3 km/h (2 Bft)
07.02.2015 11:12 0,2 C -1,1 C 83 % 1032,6 hPa 0,0 l/m 2 min 0 min 329 W/m 8,4 km/h (2 Bft)
07.02.2015 11:14 0,3 C -1,1 C 83 % 1032,5 hPa 0,0 l/m 2 min 0 min 331 W/m 8,4 km/h (2 Bft)
07.02.2015 11:16 0,4 C -0,6 C 83 % 1032,5 hPa 0,0 l/m 2 min 0 min 334 W/m 8,4 km/h (2 Bft)
07.02.2015 11:18 0,5 C -0,6 C 83 % 1032,5 hPa 0,0 l/m 2 min 0 min 343 W/m 8,4 km/h (2 Bft)
07.02.2015 11:20 0,5 C -0,6 C 82 % 1032,3 hPa 0,0 l/m 2 min 0 min 347 W/m 4,2 km/h (1 Bft)
07.02.2015 11:22 0,6 C -0,6 C 82 % 1032,3 hPa 0,0 l/m 2 min 0 min 351 W/m 8,4 km/h (2 Bft)
07.02.2015 11:24 0,7 C -0,6 C 82 % 1032,4 hPa 0,0 l/m 2 min 0 min 352 W/m 6,3 km/h (2 Bft)
07.02.2015 11:26 0,8 C -0,6 C 82 % 1032,3 hPa 0,0 l/m 2 min 0 min 357 W/m 6,3 km/h (2 Bft)
07.02.2015 11:28 0,8 C -0,6 C 82 % 1032,4 hPa 0,0 l/m 2 min 0 min 352 W/m 10,5 km/h (2 Bft)
07.02.2015 11:30 0,9 C -0,6 C 81 % 1032,4 hPa 0,0 l/m 2 min 0 min 358 W/m 10,5 km/h (2 Bft)
07.02.2015 11:32 0,9 C -0,6 C 81 % 1032,4 hPa 0,0 l/m 2 min 0 min 365 W/m 8,4 km/h (2 Bft)
07.02.2015 11:34 1,0 C -0,6 C 80 % 1032,4 hPa 0,0 l/m 2 min 0 min 368 W/m 6,3 km/h (2 Bft)
07.02.2015 11:36 1,1 C 0,0 C 80 % 1032,3 hPa 0,0 l/m 2 min 0 min 364 W/m 4,2 km/h (1 Bft)
07.02.2015 11:38 1,1 C 0,0 C 80 % 1032,3 hPa 0,0 l/m 2 min 0 min 372 W/m 6,3 km/h (2 Bft)
07.02.2015 11:40 1,2 C 0,0 C 79 % 1032,3 hPa 0,0 l/m 2 min 0 min 368 W/m 6,3 km/h (2 Bft)
07.02.2015 11:42 1,3 C 0,0 C 79 % 1032,2 hPa 0,0 l/m 2 min 0 min 369 W/m 6,3 km/h (2 Bft)
07.02.2015 11:44 1,3 C 0,0 C 79 % 1032,2 hPa 0,0 l/m 2 min 0 min 367 W/m 8,4 km/h (2 Bft)
07.02.2015 11:46 1,4 C 0,0 C 78 % 1032,1 hPa 0,0 l/m 2 min 0 min 373 W/m 6,3 km/h (2 Bft)
07.02.2015 11:48 1,5 C 0,0 C 78 % 1032,1 hPa 0,0 l/m 2 min 0 min 368 W/m 2,1 km/h (1 Bft)
07.02.2015 11:50 1,6 C 0,0 C 78 % 1032,2 hPa 0,0 l/m 2 min 0 min 371 W/m 4,2 km/h (1 Bft)
07.02.2015 11:52 1,7 C 0,0 C 77 % 1032,1 hPa 0,0 l/m 2 min 0 min 374 W/m 6,3 km/h (2 Bft)
07.02.2015 11:54 1,8 C 0,0 C 77 % 1032,1 hPa 0,0 l/m 2 min 0 min 377 W/m 8,4 km/h (2 Bft)
07.02.2015 11:56 1,9 C 0,0 C 77 % 1032,1 hPa 0,0 l/m 2 min 0 min 370 W/m 8,4 km/h (2 Bft)
07.02.2015 11:58 1,9 C 0,6 C 76 % 1032,1 hPa 0,0 l/m 2 min 0 min 367 W/m 10,5 km/h (2 Bft)
07.02.2015 12:00 2,0 C 0,6 C 76 % 1032,1 hPa 0,0 l/m 2 min 0 min 370 W/m 6,3 km/h (2 Bft)
07.02.2015 12:02 2,1 C 0,6 C 75 % 1032,1 hPa 0,0 l/m 2 min 0 min 376 W/m 8,4 km/h (2 Bft)
07.02.2015 12:05 2,2 C 0,6 C 74 % 1031,9 hPa 0,0 l/m 2 min 0 min 385 W/m 6,3 km/h (2 Bft)
07.02.2015 12:06 2,3 C 0,6 C 74 % 1031,8 hPa 0,0 l/m 1 min 0 min 386 W/m 6,3 km/h (2 Bft)
07.02.2015 12:08 2,3 C 0,6 C 74 % 1031,8 hPa 0,0 l/m 2 min 0 min 390 W/m 6,3 km/h (2 Bft)
07.02.2015 12:10 2,4 C 0,6 C 73 % 1031,7 hPa 0,0 l/m 2 min 0 min 394 W/m 4,2 km/h (1 Bft)
07.02.2015 12:12 2,5 C 0,6 C 73 % 1031,8 hPa 0,0 l/m 2 min 0 min 395 W/m 6,3 km/h (2 Bft)
07.02.2015 12:14 2,6 C 1,1 C 73 % 1031,8 hPa 0,0 l/m 2 min 0 min 393 W/m 4,2 km/h (1 Bft)
07.02.2015 12:16 2,7 C 1,1 C 72 % 1031,8 hPa 0,0 l/m 2 min 0 min 397 W/m 8,4 km/h (2 Bft)
07.02.2015 12:18 2,8 C 1,1 C 72 % 1031,8 hPa 0,0 l/m 2 min 0 min 397 W/m 6,3 km/h (2 Bft)
07.02.2015 12:20 2,9 C 1,1 C 71 % 1031,8 hPa 0,0 l/m 2 min 0 min 396 W/m 8,4 km/h (2 Bft)
07.02.2015 12:22 3,1 C 1,1 C 70 % 1031,8 hPa 0,0 l/m 2 min 0 min 398 W/m 6,3 km/h (2 Bft)
07.02.2015 12:24 3,2 C 1,1 C 69 % 1031,8 hPa 0,0 l/m 2 min 0 min 402 W/m 6,3 km/h (2 Bft)
07.02.2015 12:26 3,2 C 1,1 C 69 % 1031,9 hPa 0,0 l/m 2 min 0 min 400 W/m 8,4 km/h (2 Bft)
07.02.2015 12:28 3,3 C 1,1 C 69 % 1031,8 hPa 0,0 l/m 2 min 0 min 403 W/m 6,3 km/h (2 Bft)
07.02.2015 12:30 3,3 C 1,1 C 69 % 1031,8 hPa 0,0 l/m 2 min 0 min 404 W/m 10,5 km/h (2 Bft)
07.02.2015 12:32 3,4 C 1,7 C 69 % 1031,8 hPa 0,0 l/m 2 min 0 min 403 W/m 6,3 km/h (2 Bft)
07.02.2015 12:34 3,5 C 1,7 C 68 % 1031,8 hPa 0,0 l/m 2 min 0 min 402 W/m 8,4 km/h (2 Bft)
07.02.2015 12:36 3,6 C 1,7 C 68 % 1031,8 hPa 0,0 l/m 2 min 0 min 403 W/m 10,5 km/h (2 Bft)
07.02.2015 12:38 3,6 C 1,7 C 68 % 1031,8 hPa 0,0 l/m 2 min 0 min 408 W/m 10,5 km/h (2 Bft)
07.02.2015 12:40 3,7 C 1,7 C 67 % 1031,8 hPa 0,0 l/m 2 min 0 min 391 W/m 14,6 km/h (3 Bft)
07.02.2015 12:42 3,7 C 1,7 C 66 % 1031,8 hPa 0,0 l/m 2 min 0 min 364 W/m 12,6 km/h (3 Bft)
07.02.2015 12:44 3,7 C 1,1 C 65 % 1031,8 hPa 0,0 l/m 2 min 0 min 361 W/m 10,5 km/h (2 Bft)
07.02.2015 12:46 3,7 C 1,1 C 66 % 1031,8 hPa 0,0 l/m 2 min 0 min 362 W/m 10,5 km/h (2 Bft)
07.02.2015 12:48 3,7 C 1,7 C 66 % 1031,7 hPa 0,0 l/m 2 min 0 min 369 W/m 14,6 km/h (3 Bft)
07.02.2015 12:50 3,7 C 1,7 C 65 % 1031,6 hPa 0,0 l/m 2 min 0 min 375 W/m 10,5 km/h (2 Bft)
07.02.2015 12:52 3,7 C 1,7 C 65 % 1031,6 hPa 0,0 l/m 2 min 0 min 367 W/m 12,6 km/h (3 Bft)
07.02.2015 12:54 3,7 C 1,7 C 65 % 1031,6 hPa 0,0 l/m 2 min 0 min 361 W/m 8,4 km/h (2 Bft)
07.02.2015 12:56 3,7 C 1,7 C 65 % 1031,6 hPa 0,0 l/m 2 min 0 min 402 W/m 14,6 km/h (3 Bft)
07.02.2015 12:58 3,8 C 1,7 C 65 % 1031,6 hPa 0,0 l/m 2 min 0 min 403 W/m 14,6 km/h (3 Bft)
07.02.2015 13:00 3,8 C 1,7 C 64 % 1031,6 hPa 0,0 l/m 2 min 0 min 402 W/m 10,5 km/h (2 Bft)
07.02.2015 13:02 3,8 C 1,7 C 64 % 1031,6 hPa 0,0 l/m 2 min 0 min 398 W/m 10,5 km/h (2 Bft)
07.02.2015 13:04 3,8 C 1,7 C 64 % 1031,7 hPa 0,0 l/m 2 min 0 min 392 W/m 14,6 km/h (3 Bft)
07.02.2015 13:06 3,8 C 2,2 C 64 % 1031,7 hPa 0,0 l/m 2 min 0 min 393 W/m 14,6 km/h (3 Bft)
07.02.2015 13:08 3,9 C 2,2 C 64 % 1031,7 hPa 0,0 l/m 2 min 0 min 398 W/m 14,6 km/h (3 Bft)
07.02.2015 13:10 3,9 C 2,2 C 64 % 1031,8 hPa 0,0 l/m 2 min 0 min 399 W/m 12,6 km/h (3 Bft)
07.02.2015 13:12 3,9 C 2,2 C 63 % 1031,7 hPa 0,0 l/m 2 min 0 min 402 W/m 6,3 km/h (2 Bft)
07.02.2015 13:14 4,0 C 2,2 C 63 % 1031,7 hPa 0,0 l/m 2 min 0 min 442 W/m 12,6 km/h (3 Bft)
07.02.2015 13:16 4,1 C 2,8 C 63 % 1031,7 hPa 0,0 l/m 2 min 0 min 512 W/m 10,5 km/h (2 Bft)
07.02.2015 13:18 4,1 C 2,8 C 63 % 1031,6 hPa 0,0 l/m 2 min 0 min 526 W/m 14,6 km/h (3 Bft)
07.02.2015 13:20 4,1 C 2,8 C 63 % 1031,6 hPa 0,0 l/m 2 min 0 min 229 W/m 14,6 km/h (3 Bft)
07.02.2015 13:22 4,1 C 3,3 C 63 % 1031,5 hPa 0,0 l/m 2 min 0 min 214 W/m 12,6 km/h (3 Bft)
07.02.2015 13:24 4,2 C 3,3 C 63 % 1031,5 hPa 0,0 l/m 2 min 0 min 221 W/m 10,5 km/h (2 Bft)
07.02.2015 13:26 4,2 C 3,3 C 63 % 1031,5 hPa 0,0 l/m 0 min 0 min 195 W/m 10,5 km/h (2 Bft)
07.02.2015 13:28 4,2 C 3,3 C 64 % 1031,4 hPa 0,0 l/m 0 min 0 min 187 W/m 8,4 km/h (2 Bft)
07.02.2015 13:30 4,2 C 3,3 C 64 % 1031,3 hPa 0,0 l/m 2 min 0 min 207 W/m 10,5 km/h (2 Bft)
07.02.2015 13:32 4,2 C 3,3 C 64 % 1031,3 hPa 0,0 l/m 2 min 0 min 200 W/m 8,4 km/h (2 Bft)
07.02.2015 13:34 4,2 C 3,3 C 65 % 1031,3 hPa 0,0 l/m 0 min 0 min 175 W/m 8,4 km/h (2 Bft)
07.02.2015 13:36 4,2 C 3,3 C 65 % 1031,2 hPa 0,0 l/m 0 min 0 min 162 W/m 8,4 km/h (2 Bft)
07.02.2015 13:38 4,2 C 3,3 C 65 % 1031,2 hPa 0,0 l/m 2 min 0 min 196 W/m 10,5 km/h (2 Bft)
07.02.2015 13:40 4,2 C 3,3 C 66 % 1031,1 hPa 0,0 l/m 2 min 0 min 224 W/m 6,3 km/h (2 Bft)
07.02.2015 13:42 4,2 C 3,3 C 66 % 1031,1 hPa 0,0 l/m 2 min 0 min 219 W/m 6,3 km/h (2 Bft)
07.02.2015 13:44 4,2 C 3,3 C 67 % 1031,1 hPa 0,0 l/m 0 min 0 min 187 W/m 8,4 km/h (2 Bft)
07.02.2015 13:46 4,2 C 3,3 C 67 % 1031,1 hPa 0,0 l/m 0 min 0 min 174 W/m 8,4 km/h (2 Bft)
07.02.2015 13:48 4,2 C 3,3 C 67 % 1031,1 hPa 0,0 l/m 0 min 0 min 158 W/m 10,5 km/h (2 Bft)
07.02.2015 13:50 4,2 C 3,3 C 67 % 1031,0 hPa 0,0 l/m 0 min 0 min 157 W/m 6,3 km/h (2 Bft)
07.02.2015 13:52 4,2 C 3,3 C 68 % 1031,0 hPa 0,0 l/m 0 min 0 min 163 W/m 10,5 km/h (2 Bft)
07.02.2015 13:54 4,2 C 3,3 C 68 % 1030,8 hPa 0,0 l/m 0 min 0 min 154 W/m 6,3 km/h (2 Bft)
07.02.2015 13:56 4,2 C 3,3 C 68 % 1030,7 hPa 0,0 l/m 0 min 0 min 147 W/m 6,3 km/h (2 Bft)
07.02.2015 13:58 4,2 C 3,3 C 68 % 1030,7 hPa 0,0 l/m 0 min 0 min 170 W/m 6,3 km/h (2 Bft)
07.02.2015 14:00 4,2 C 3,3 C 68 % 1030,7 hPa 0,0 l/m 0 min 0 min 172 W/m 6,3 km/h (2 Bft)
07.02.2015 14:02 4,2 C 3,3 C 69 % 1030,6 hPa 0,0 l/m 0 min 0 min 161 W/m 8,4 km/h (2 Bft)
07.02.2015 14:04 4,2 C 3,3 C 68 % 1030,7 hPa 0,0 l/m 0 min 0 min 138 W/m 10,5 km/h (2 Bft)
07.02.2015 14:06 4,2 C 3,3 C 69 % 1030,6 hPa 0,0 l/m 0 min 0 min 132 W/m 12,6 km/h (3 Bft)
07.02.2015 14:08 4,2 C 3,3 C 69 % 1030,6 hPa 0,0 l/m 0 min 0 min 144 W/m 8,4 km/h (2 Bft)
07.02.2015 14:10 4,2 C 3,3 C 69 % 1030,6 hPa 0,0 l/m 0 min 0 min 136 W/m 8,4 km/h (2 Bft)
07.02.2015 14:12 4,2 C 3,3 C 70 % 1030,4 hPa 0,0 l/m 0 min 0 min 142 W/m 10,5 km/h (2 Bft)
07.02.2015 14:14 4,2 C 3,3 C 70 % 1030,4 hPa 0,0 l/m 0 min 0 min 145 W/m 10,5 km/h (2 Bft)
07.02.2015 14:16 4,2 C 3,3 C 70 % 1030,4 hPa 0,0 l/m 0 min 0 min 168 W/m 6,3 km/h (2 Bft)
07.02.2015 14:18 4,2 C 3,3 C 70 % 1030,3 hPa 0,0 l/m 0 min 0 min 172 W/m 6,3 km/h (2 Bft)
07.02.2015 14:20 4,2 C 3,3 C 70 % 1030,3 hPa 0,0 l/m 0 min 0 min 156 W/m 6,3 km/h (2 Bft)
07.02.2015 14:22 4,2 C 3,3 C 71 % 1030,3 hPa 0,0 l/m 0 min 0 min 151 W/m 4,2 km/h (1 Bft)
07.02.2015 14:24 4,2 C 3,3 C 71 % 1030,3 hPa 0,0 l/m 2 min 0 min 175 W/m 6,3 km/h (2 Bft)
07.02.2015 14:26 4,2 C 3,9 C 71 % 1030,3 hPa 0,0 l/m 2 min 0 min 178 W/m 8,4 km/h (2 Bft)
07.02.2015 14:28 4,2 C 3,9 C 71 % 1030,3 hPa 0,0 l/m 0 min 0 min 153 W/m 8,4 km/h (2 Bft)
07.02.2015 14:30 4,2 C 3,9 C 71 % 1030,4 hPa 0,0 l/m 0 min 0 min 141 W/m 8,4 km/h (2 Bft)
07.02.2015 14:32 4,2 C 3,9 C 71 % 1030,4 hPa 0,0 l/m 0 min 0 min 132 W/m 8,4 km/h (2 Bft)
07.02.2015 14:34 4,2 C 3,3 C 71 % 1030,3 hPa 0,0 l/m 0 min 0 min 125 W/m 8,4 km/h (2 Bft)
07.02.2015 14:36 4,2 C 3,3 C 71 % 1030,3 hPa 0,0 l/m 0 min 0 min 149 W/m 8,4 km/h (2 Bft)
07.02.2015 14:38 4,3 C 3,9 C 71 % 1030,3 hPa 0,0 l/m 2 min 0 min 179 W/m 4,2 km/h (1 Bft)
07.02.2015 14:40 4,3 C 3,9 C 71 % 1030,3 hPa 0,0 l/m 2 min 0 min 173 W/m 8,4 km/h (2 Bft)
07.02.2015 14:42 4,3 C 3,9 C 72 % 1030,3 hPa 0,0 l/m 0 min 0 min 154 W/m 8,4 km/h (2 Bft)
07.02.2015 14:44 4,3 C 3,9 C 72 % 1030,3 hPa 0,0 l/m 0 min 0 min 130 W/m 10,5 km/h (2 Bft)
07.02.2015 14:46 4,3 C 3,3 C 72 % 1030,3 hPa 0,0 l/m 0 min 0 min 119 W/m 8,4 km/h (2 Bft)
07.02.2015 14:48 4,3 C 3,3 C 72 % 1030,3 hPa 0,0 l/m 0 min 0 min 112 W/m 12,6 km/h (3 Bft)
07.02.2015 14:50 4,3 C 3,3 C 73 % 1030,3 hPa 0,0 l/m 0 min 0 min 100 W/m 10,5 km/h (2 Bft)
07.02.2015 14:52 4,3 C 3,3 C 73 % 1030,3 hPa 0,0 l/m 0 min 0 min 102 W/m 10,5 km/h (2 Bft)
07.02.2015 14:54 4,4 C 3,3 C 73 % 1030,4 hPa 0,0 l/m 0 min 0 min 99 W/m 12,6 km/h (3 Bft)
07.02.2015 14:56 4,4 C 3,3 C 73 % 1030,4 hPa 0,0 l/m 0 min 0 min 94 W/m 10,5 km/h (2 Bft)
07.02.2015 14:58 4,4 C 3,3 C 74 % 1030,4 hPa 0,0 l/m 0 min 0 min 89 W/m 12,6 km/h (3 Bft)
07.02.2015 15:00 4,4 C 3,3 C 74 % 1030,4 hPa 0,0 l/m 0 min 0 min 87 W/m 10,5 km/h (2 Bft)
07.02.2015 15:02 4,4 C 3,3 C 74 % 1030,4 hPa 0,0 l/m 0 min 0 min 87 W/m 10,5 km/h (2 Bft)
07.02.2015 15:04 4,4 C 3,3 C 74 % 1030,4 hPa 0,0 l/m 0 min 0 min 96 W/m 6,3 km/h (2 Bft)
07.02.2015 15:06 4,4 C 3,3 C 74 % 1030,5 hPa 0,0 l/m 0 min 0 min 97 W/m 12,6 km/h (3 Bft)
07.02.2015 15:08 4,3 C 3,3 C 75 % 1030,5 hPa 0,0 l/m 0 min 0 min 98 W/m 12,6 km/h (3 Bft)
07.02.2015 15:10 4,3 C 3,3 C 75 % 1030,6 hPa 0,0 l/m 0 min 0 min 112 W/m 10,5 km/h (2 Bft)
07.02.2015 15:12 4,3 C 3,3 C 75 % 1030,6 hPa 0,0 l/m 0 min 0 min 101 W/m 18,8 km/h (3 Bft)
07.02.2015 15:14 4,3 C 3,3 C 76 % 1030,7 hPa 0,0 l/m 0 min 0 min 94 W/m 18,8 km/h (3 Bft)
07.02.2015 15:16 4,3 C 3,3 C 76 % 1030,6 hPa 0,0 l/m 0 min 0 min 91 W/m 16,7 km/h (3 Bft)
07.02.2015 15:18 4,3 C 3,3 C 76 % 1030,6 hPa 0,0 l/m 0 min 0 min 114 W/m 16,7 km/h (3 Bft)
07.02.2015 15:20 4,3 C 3,3 C 77 % 1030,6 hPa 0,0 l/m 2 min 0 min 145 W/m 14,6 km/h (3 Bft)
07.02.2015 15:22 4,3 C 3,3 C 77 % 1030,6 hPa 0,0 l/m 2 min 0 min 160 W/m 16,7 km/h (3 Bft)
07.02.2015 15:24 4,3 C 3,3 C 77 % 1030,6 hPa 0,0 l/m 2 min 0 min 175 W/m 16,7 km/h (3 Bft)
07.02.2015 15:26 4,2 C 3,3 C 77 % 1030,6 hPa 0,0 l/m 2 min 0 min 140 W/m 14,6 km/h (3 Bft)
07.02.2015 15:28 4,2 C 3,3 C 77 % 1030,6 hPa 0,0 l/m 0 min 0 min 115 W/m 10,5 km/h (2 Bft)
07.02.2015 15:30 4,2 C 3,3 C 77 % 1030,6 hPa 0,0 l/m 0 min 0 min 100 W/m 14,6 km/h (3 Bft)
07.02.2015 15:32 4,2 C 3,3 C 77 % 1030,5 hPa 0,0 l/m 0 min 0 min 98 W/m 18,8 km/h (3 Bft)
07.02.2015 15:34 4,2 C 3,3 C 77 % 1030,4 hPa 0,0 l/m 0 min 0 min 108 W/m 14,6 km/h (3 Bft)
07.02.2015 15:36 4,2 C 3,3 C 77 % 1030,4 hPa 0,0 l/m 0 min 0 min 108 W/m 16,7 km/h (3 Bft)
07.02.2015 15:38 4,2 C 3,3 C 77 % 1030,4 hPa 0,0 l/m 0 min 0 min 100 W/m 12,6 km/h (3 Bft)
07.02.2015 15:40 4,2 C 3,3 C 77 % 1030,4 hPa 0,0 l/m 0 min 0 min 91 W/m 14,6 km/h (3 Bft)
07.02.2015 15:42 4,2 C 3,3 C 77 % 1030,4 hPa 0,0 l/m 0 min 0 min 93 W/m 12,6 km/h (3 Bft)
07.02.2015 15:44 4,2 C 3,3 C 77 % 1030,3 hPa 0,0 l/m 0 min 0 min 93 W/m 14,6 km/h (3 Bft)
07.02.2015 15:46 4,2 C 3,3 C 77 % 1030,3 hPa 0,0 l/m 0 min 0 min 91 W/m 8,4 km/h (2 Bft)
07.02.2015 15:48 4,2 C 3,3 C 77 % 1030,4 hPa 0,0 l/m 0 min 0 min 83 W/m 8,4 km/h (2 Bft)
07.02.2015 15:50 4,1 C 3,3 C 78 % 1030,4 hPa 0,0 l/m 0 min 0 min 77 W/m 10,5 km/h (2 Bft)
07.02.2015 15:52 4,1 C 3,3 C 78 % 1030,4 hPa 0,0 l/m 0 min 0 min 74 W/m 6,3 km/h (2 Bft)
07.02.2015 15:54 4,1 C 2,8 C 78 % 1030,4 hPa 0,0 l/m 0 min 0 min 70 W/m 14,6 km/h (3 Bft)
07.02.2015 15:56 4,1 C 2,8 C 78 % 1030,4 hPa 0,0 l/m 0 min 0 min 70 W/m 12,6 km/h (3 Bft)
07.02.2015 15:58 4,1 C 2,8 C 78 % 1030,3 hPa 0,0 l/m 0 min 0 min 76 W/m 8,4 km/h (2 Bft)
07.02.2015 16:00 4,1 C 2,8 C 78 % 1030,4 hPa 0,0 l/m 0 min 0 min 89 W/m 10,5 km/h (2 Bft)
07.02.2015 16:02 4,1 C 2,8 C 78 % 1030,4 hPa 0,0 l/m 0 min 0 min 90 W/m 10,5 km/h (2 Bft)
07.02.2015 16:04 4,1 C 2,8 C 79 % 1030,5 hPa 0,0 l/m 0 min 0 min 78 W/m 12,6 km/h (3 Bft)
07.02.2015 16:06 4,1 C 2,8 C 79 % 1030,4 hPa 0,0 l/m 0 min 0 min 68 W/m 14,6 km/h (3 Bft)
07.02.2015 16:08 4,1 C 2,8 C 79 % 1030,5 hPa 0,0 l/m 0 min 0 min 64 W/m 14,6 km/h (3 Bft)
07.02.2015 16:10 4,1 C 2,8 C 80 % 1030,5 hPa 0,0 l/m 0 min 0 min 60 W/m 8,4 km/h (2 Bft)
07.02.2015 16:12 4,1 C 2,8 C 80 % 1030,5 hPa 0,0 l/m 0 min 0 min 60 W/m 8,4 km/h (2 Bft)
07.02.2015 16:14 4,1 C 2,8 C 80 % 1030,4 hPa 0,0 l/m 0 min 0 min 62 W/m 6,3 km/h (2 Bft)
07.02.2015 16:16 4,1 C 2,8 C 80 % 1030,5 hPa 0,0 l/m 0 min 0 min 64 W/m 16,7 km/h (3 Bft)
07.02.2015 16:18 4,1 C 2,8 C 80 % 1030,5 hPa 0,0 l/m 0 min 0 min 57 W/m 14,6 km/h (3 Bft)
07.02.2015 16:20 4,0 C 2,8 C 80 % 1030,6 hPa 0,0 l/m 0 min 0 min 43 W/m 8,4 km/h (2 Bft)
07.02.2015 16:22 4,0 C 2,2 C 81 % 1030,5 hPa 0,0 l/m 0 min 0 min 35 W/m 16,7 km/h (3 Bft)
07.02.2015 16:24 4,0 C 2,2 C 81 % 1030,5 hPa 0,0 l/m 0 min 0 min 32 W/m 12,6 km/h (3 Bft)
07.02.2015 16:26 4,0 C 2,2 C 81 % 1030,4 hPa 0,0 l/m 0 min 2 min 33 W/m 12,6 km/h (3 Bft)
07.02.2015 16:28 3,9 C 2,2 C 82 % 1030,4 hPa 0,0 l/m 0 min 0 min 36 W/m 14,6 km/h (3 Bft)
07.02.2015 16:30 3,9 C 2,2 C 82 % 1030,2 hPa 0,0 l/m 0 min 0 min 34 W/m 10,5 km/h (2 Bft)
07.02.2015 16:32 3,9 C 2,2 C 82 % 1030,2 hPa 0,0 l/m 0 min 0 min 43 W/m 12,6 km/h (3 Bft)
07.02.2015 16:34 3,9 C 1,7 C 83 % 1030,3 hPa 0,0 l/m 0 min 0 min 40 W/m 10,5 km/h (2 Bft)
07.02.2015 16:36 3,9 C 1,7 C 83 % 1030,3 hPa 0,0 l/m 0 min 0 min 33 W/m 12,6 km/h (3 Bft)
07.02.2015 16:38 3,9 C 1,7 C 84 % 1030,2 hPa 0,0 l/m 0 min 0 min 38 W/m 12,6 km/h (3 Bft)
07.02.2015 16:40 3,9 C 1,7 C 84 % 1030,3 hPa 0,0 l/m 0 min 0 min 33 W/m 10,5 km/h (2 Bft)
07.02.2015 16:42 3,8 C 1,7 C 85 % 1030,3 hPa 0,0 l/m 0 min 0 min 30 W/m 10,5 km/h (2 Bft)
07.02.2015 16:44 3,8 C 1,7 C 85 % 1030,4 hPa 0,0 l/m 0 min 0 min 23 W/m 16,7 km/h (3 Bft)
07.02.2015 16:46 3,8 C 1,7 C 85 % 1030,4 hPa 0,0 l/m 0 min 0 min 21 W/m 14,6 km/h (3 Bft)
07.02.2015 16:48 3,8 C 1,7 C 86 % 1030,4 hPa 0,0 l/m 0 min 0 min 25 W/m 10,5 km/h (2 Bft)
07.02.2015 16:50 3,7 C 1,7 C 86 % 1030,4 hPa 0,0 l/m 0 min 0 min 34 W/m 10,5 km/h (2 Bft)
07.02.2015 16:52 3,7 C 1,7 C 86 % 1030,2 hPa 0,0 l/m 0 min 0 min 39 W/m 8,4 km/h (2 Bft)
07.02.2015 16:54 3,7 C 1,7 C 86 % 1030,2 hPa 0,0 l/m 2 min 0 min 44 W/m 12,6 km/h (3 Bft)
07.02.2015 16:56 3,7 C 1,7 C 86 % 1030,2 hPa 0,0 l/m 0 min 0 min 38 W/m 10,5 km/h (2 Bft)
07.02.2015 16:58 3,6 C 1,7 C 87 % 1030,3 hPa 0,0 l/m 0 min 0 min 29 W/m 12,6 km/h (3 Bft)
07.02.2015 17:00 3,6 C 1,7 C 87 % 1030,2 hPa 0,0 l/m 0 min 0 min 28 W/m 10,5 km/h (2 Bft)
07.02.2015 17:02 3,6 C 1,7 C 87 % 1030,3 hPa 0,0 l/m 0 min 0 min 26 W/m 8,4 km/h (2 Bft)
07.02.2015 17:04 3,6 C 1,7 C 87 % 1030,3 hPa 0,0 l/m 0 min 0 min 29 W/m 12,6 km/h (3 Bft)
07.02.2015 17:06 3,5 C 1,7 C 88 % 1030,2 hPa 0,0 l/m 2 min 0 min 30 W/m 12,6 km/h (3 Bft)
07.02.2015 17:08 3,5 C 1,7 C 88 % 1030,1 hPa 0,0 l/m 2 min 0 min 28 W/m 12,6 km/h (3 Bft)
07.02.2015 17:10 3,5 C 1,7 C 88 % 1030,1 hPa 0,0 l/m 0 min 0 min 19 W/m 12,6 km/h (3 Bft)
07.02.2015 17:12 3,4 C 1,7 C 88 % 1030,1 hPa 0,0 l/m 0 min 0 min 20 W/m 12,6 km/h (3 Bft)
07.02.2015 17:14 3,4 C 1,7 C 88 % 1030,0 hPa 0,0 l/m 2 min 0 min 22 W/m 10,5 km/h (2 Bft)
07.02.2015 17:16 3,4 C 1,7 C 88 % 1030,0 hPa 0,0 l/m 2 min 0 min 21 W/m 8,4 km/h (2 Bft)
07.02.2015 17:18 3,3 C 1,1 C 88 % 1030,0 hPa 0,0 l/m 2 min 0 min 20 W/m 16,7 km/h (3 Bft)
07.02.2015 17:20 3,3 C 1,1 C 89 % 1030,1 hPa 0,0 l/m 2 min 0 min 18 W/m 12,6 km/h (3 Bft)
07.02.2015 17:22 3,3 C 1,1 C 89 % 1030,1 hPa 0,0 l/m 2 min 0 min 14 W/m 12,6 km/h (3 Bft)
07.02.2015 17:24 3,3 C 1,1 C 89 % 1030,0 hPa 0,0 l/m 0 min 0 min 12 W/m 8,4 km/h (2 Bft)
07.02.2015 17:26 3,2 C 1,1 C 89 % 1030,0 hPa 0,0 l/m 0 min 0 min 11 W/m 14,6 km/h (3 Bft)
07.02.2015 17:28 3,2 C 1,1 C 89 % 1030,1 hPa 0,0 l/m 0 min 0 min 9 W/m 8,4 km/h (2 Bft)
07.02.2015 17:30 3,2 C 1,1 C 89 % 1030,0 hPa 0,0 l/m 0 min 0 min 7 W/m 10,5 km/h (2 Bft)
07.02.2015 17:32 3,2 C 1,1 C 89 % 1030,0 hPa 0,0 l/m 0 min 0 min 6 W/m 8,4 km/h (2 Bft)
07.02.2015 17:34 3,1 C 1,1 C 89 % 1030,0 hPa 0,0 l/m 0 min 0 min 5 W/m 12,6 km/h (3 Bft)
07.02.2015 17:36 3,1 C 1,1 C 89 % 1030,0 hPa 0,0 l/m 0 min 0 min 5 W/m 10,5 km/h (2 Bft)
07.02.2015 17:38 3,1 C 1,1 C 89 % 1030,0 hPa 0,0 l/m 0 min 0 min 5 W/m 4,2 km/h (1 Bft)
07.02.2015 17:40 3,1 C 1,1 C 90 % 1030,0 hPa 0,0 l/m 0 min 0 min 5 W/m 8,4 km/h (2 Bft)
07.02.2015 17:42 3,0 C 1,1 C 90 % 1030,0 hPa 0,0 l/m 0 min 0 min 5 W/m 10,5 km/h (2 Bft)
07.02.2015 17:44 3,0 C 1,1 C 90 % 1030,1 hPa 0,0 l/m 0 min 0 min 5 W/m 10,5 km/h (2 Bft)
07.02.2015 17:46 2,9 C 1,1 C 90 % 1030,1 hPa 0,0 l/m 0 min 0 min 5 W/m 12,6 km/h (3 Bft)
07.02.2015 17:48 2,9 C 1,1 C 90 % 1030,1 hPa 0,0 l/m 0 min 0 min 0 W/m 12,6 km/h (3 Bft)
07.02.2015 17:50 2,9 C 1,1 C 90 % 1030,1 hPa 0,0 l/m 0 min 2 min 0 W/m 14,6 km/h (3 Bft)
07.02.2015 17:52 2,9 C 1,1 C 90 % 1030,1 hPa 0,0 l/m 0 min 0 min 0 W/m 10,5 km/h (2 Bft)
07.02.2015 17:54 2,9 C 1,1 C 90 % 1030,2 hPa 0,0 l/m 0 min 2 min 0 W/m 12,6 km/h (3 Bft)
07.02.2015 17:56 2,9 C 1,1 C 90 % 1030,3 hPa 0,0 l/m 0 min 0 min 0 W/m 14,6 km/h (3 Bft)
07.02.2015 17:58 2,9 C 1,1 C 91 % 1030,4 hPa 0,0 l/m 0 min 0 min 0 W/m 12,6 km/h (3 Bft)
07.02.2015 18:00 2,8 C 1,1 C 91 % 1030,5 hPa 0,0 l/m 0 min 0 min 0 W/m 12,6 km/h (3 Bft)
07.02.2015 18:02 2,8 C 1,1 C 91 % 1030,5 hPa 0,0 l/m 0 min 0 min 0 W/m 12,6 km/h (3 Bft)
07.02.2015 18:05 2,8 C 1,1 C 91 % 1030,6 hPa 0,0 l/m 0 min 0 min 0 W/m 14,6 km/h (3 Bft)
07.02.2015 18:06 2,8 C 1,1 C 91 % 1030,6 hPa 0,0 l/m 0 min 1 min 0 W/m 14,6 km/h (3 Bft)
07.02.2015 18:08 2,8 C 1,1 C 91 % 1030,5 hPa 0,0 l/m 0 min 2 min 0 W/m 12,6 km/h (3 Bft)
07.02.2015 18:10 2,8 C 1,1 C 91 % 1030,5 hPa 0,0 l/m 0 min 2 min 0 W/m 12,6 km/h (3 Bft)
07.02.2015 18:12 2,8 C 1,1 C 91 % 1030,5 hPa 0,0 l/m 0 min 0 min 0 W/m 8,4 km/h (2 Bft)
07.02.2015 18:14 2,8 C 1,1 C 91 % 1030,5 hPa 0,0 l/m 0 min 0 min 0 W/m 12,6 km/h (3 Bft)
07.02.2015 18:16 2,8 C 1,1 C 92 % 1030,4 hPa 0,0 l/m 0 min 0 min 0 W/m 16,7 km/h (3 Bft)
07.02.2015 18:18 2,8 C 1,1 C 92 % 1030,4 hPa 0,0 l/m 0 min 0 min 0 W/m 12,6 km/h (3 Bft)
07.02.2015 18:20 2,7 C 1,1 C 92 % 1030,3 hPa 0,0 l/m 0 min 0 min 0 W/m 8,4 km/h (2 Bft)
07.02.2015 18:22 2,7 C 1,1 C 92 % 1030,4 hPa 0,0 l/m 0 min 0 min 0 W/m 12,6 km/h (3 Bft)
07.02.2015 18:24 2,7 C 1,1 C 92 % 1030,3 hPa 0,0 l/m 0 min 0 min 0 W/m 12,6 km/h (3 Bft)
07.02.2015 18:26 2,7 C 1,1 C 92 % 1030,2 hPa 0,0 l/m 0 min 0 min 0 W/m 8,4 km/h (2 Bft)
07.02.2015 18:28 2,7 C 1,1 C 92 % 1030,1 hPa 0,0 l/m 0 min 0 min 0 W/m 8,4 km/h (2 Bft)
07.02.2015 18:30 2,7 C 1,1 C 92 % 1029,9 hPa 0,0 l/m 0 min 0 min 0 W/m 12,6 km/h (3 Bft)
07.02.2015 18:32 2,7 C 1,1 C 92 % 1029,8 hPa 0,0 l/m 0 min 0 min 0 W/m 8,4 km/h (2 Bft)
07.02.2015 18:34 2,7 C 1,1 C 92 % 1029,8 hPa 0,0 l/m 0 min 0 min 0 W/m 8,4 km/h (2 Bft)
07.02.2015 18:36 2,7 C 1,1 C 92 % 1029,8 hPa 0,0 l/m 0 min 0 min 0 W/m 12,6 km/h (3 Bft)
07.02.2015 18:38 2,7 C 1,1 C 93 % 1029,8 hPa 0,0 l/m 0 min 0 min 0 W/m 6,3 km/h (2 Bft)
07.02.2015 18:40 2,7 C 1,1 C 93 % 1029,7 hPa 0,0 l/m 0 min 0 min 0 W/m 10,5 km/h (2 Bft)
07.02.2015 18:42 2,7 C 1,1 C 93 % 1029,8 hPa 0,0 l/m 0 min 0 min 0 W/m 8,4 km/h (2 Bft)
07.02.2015 18:44 2,6 C 1,1 C 93 % 1029,8 hPa 0,0 l/m 0 min 0 min 0 W/m 8,4 km/h (2 Bft)
07.02.2015 18:46 2,6 C 1,1 C 93 % 1029,8 hPa 0,0 l/m 0 min 0 min 0 W/m 12,6 km/h (3 Bft)
07.02.2015 18:48 2,6 C 1,1 C 93 % 1030,0 hPa 0,0 l/m 0 min 0 min 0 W/m 10,5 km/h (2 Bft)
07.02.2015 18:50 2,6 C 1,1 C 93 % 1030,0 hPa 0,0 l/m 0 min 0 min 0 W/m 10,5 km/h (2 Bft)
07.02.2015 18:52 2,6 C 1,1 C 93 % 1030,0 hPa 0,0 l/m 0 min 0 min 0 W/m 8,4 km/h (2 Bft)
07.02.2015 18:54 2,6 C 1,1 C 93 % 1029,9 hPa 0,0 l/m 0 min 0 min 0 W/m 10,5 km/h (2 Bft)
07.02.2015 18:56 2,6 C 1,1 C 93 % 1029,9 hPa 0,0 l/m 0 min 0 min 0 W/m 14,6 km/h (3 Bft)
07.02.2015 18:58 2,6 C 1,1 C 93 % 1029,8 hPa 0,0 l/m 0 min 0 min 0 W/m 10,5 km/h (2 Bft)
07.02.2015 19:00 2,6 C 1,1 C 93 % 1029,8 hPa 0,0 l/m 0 min 0 min 0 W/m 8,4 km/h (2 Bft)
07.02.2015 19:02 2,6 C 1,1 C 93 % 1030,0 hPa 0,0 l/m 0 min 0 min 0 W/m 10,5 km/h (2 Bft)
07.02.2015 19:04 2,6 C 1,1 C 93 % 1030,0 hPa 0,0 l/m 0 min 0 min 0 W/m 16,7 km/h (3 Bft)
07.02.2015 19:06 2,6 C 1,1 C 93 % 1030,0 hPa 0,0 l/m 0 min 0 min 0 W/m 10,5 km/h (2 Bft)
07.02.2015 19:08 2,6 C 1,1 C 94 % 1029,9 hPa 0,0 l/m 0 min 0 min 0 W/m 8,4 km/h (2 Bft)
07.02.2015 19:10 2,6 C 1,1 C 94 % 1029,9 hPa 0,0 l/m 0 min 0 min 0 W/m 6,3 km/h (2 Bft)
07.02.2015 19:12 2,6 C 1,1 C 94 % 1029,9 hPa 0,0 l/m 0 min 0 min 0 W/m 12,6 km/h (3 Bft)
07.02.2015 19:14 2,6 C 1,1 C 94 % 1030,0 hPa 0,0 l/m 0 min 2 min 0 W/m 10,5 km/h (2 Bft)
07.02.2015 19:16 2,6 C 1,1 C 94 % 1030,0 hPa 0,0 l/m 0 min 0 min 0 W/m 10,5 km/h (2 Bft)
07.02.2015 19:18 2,6 C 1,1 C 94 % 1030,0 hPa 0,0 l/m 0 min 0 min 0 W/m 6,3 km/h (2 Bft)
07.02.2015 19:20 2,6 C 1,1 C 94 % 1030,0 hPa 0,0 l/m 0 min 0 min 0 W/m 12,6 km/h (3 Bft)
07.02.2015 19:22 2,6 C 1,1 C 94 % 1030,0 hPa 0,0 l/m 0 min 0 min 0 W/m 12,6 km/h (3 Bft)
07.02.2015 19:24 2,6 C 1,1 C 94 % 1030,0 hPa 0,0 l/m 0 min 0 min 0 W/m 10,5 km/h (2 Bft)
07.02.2015 19:26 2,7 C 1,1 C 94 % 1029,8 hPa 0,0 l/m 0 min 0 min 0 W/m 10,5 km/h (2 Bft)
07.02.2015 19:28 2,6 C 1,1 C 94 % 1029,8 hPa 0,0 l/m 0 min 0 min 0 W/m 14,6 km/h (3 Bft)
07.02.2015 19:30 2,6 C 1,1 C 94 % 1029,9 hPa 0,0 l/m 0 min 0 min 0 W/m 12,6 km/h (3 Bft)
07.02.2015 19:32 2,6 C 1,1 C 94 % 1030,0 hPa 0,0 l/m 0 min 0 min 0 W/m 10,5 km/h (2 Bft)
07.02.2015 19:34 2,7 C 1,1 C 94 % 1030,0 hPa 0,0 l/m 0 min 2 min 0 W/m 12,6 km/h (3 Bft)
07.02.2015 19:36 2,7 C 1,1 C 94 % 1030,0 hPa 0,0 l/m 0 min 0 min 0 W/m 12,6 km/h (3 Bft)
07.02.2015 19:38 2,7 C 1,1 C 94 % 1030,1 hPa 0,0 l/m 0 min 0 min 0 W/m 10,5 km/h (2 Bft)
07.02.2015 19:40 2,7 C 1,1 C 94 % 1030,2 hPa 0,0 l/m 0 min 0 min 0 W/m 6,3 km/h (2 Bft)
07.02.2015 19:42 2,7 C 1,1 C 94 % 1030,3 hPa 0,0 l/m 0 min 0 min 0 W/m 8,4 km/h (2 Bft)
07.02.2015 19:44 2,7 C 1,1 C 94 % 1030,2 hPa 0,0 l/m 0 min 0 min 0 W/m 8,4 km/h (2 Bft)
07.02.2015 19:46 2,7 C 1,1 C 94 % 1030,0 hPa 0,0 l/m 0 min 0 min 0 W/m 6,3 km/h (2 Bft)
07.02.2015 19:48 2,7 C 1,1 C 94 % 1029,8 hPa 0,0 l/m 0 min 0 min 0 W/m 6,3 km/h (2 Bft)
07.02.2015 19:50 2,7 C 1,1 C 94 % 1029,8 hPa 0,0 l/m 0 min 0 min 0 W/m 6,3 km/h (2 Bft)
07.02.2015 19:52 2,7 C 1,1 C 94 % 1029,7 hPa 0,0 l/m 0 min 0 min 0 W/m 6,3 km/h (2 Bft)
07.02.2015 19:54 2,7 C 1,1 C 94 % 1029,6 hPa 0,0 l/m 0 min 0 min 0 W/m 8,4 km/h (2 Bft)
07.02.2015 19:56 2,7 C 1,1 C 94 % 1029,6 hPa 0,0 l/m 0 min 0 min 0 W/m 6,3 km/h (2 Bft)
07.02.2015 19:58 2,7 C 1,1 C 94 % 1029,6 hPa 0,0 l/m 0 min 0 min 0 W/m 10,5 km/h (2 Bft)
07.02.2015 20:00 2,7 C 1,1 C 95 % 1029,5 hPa 0,0 l/m 0 min 0 min 0 W/m 6,3 km/h (2 Bft)
07.02.2015 20:02 2,7 C 1,1 C 95 % 1029,6 hPa 0,0 l/m 0 min 0 min 0 W/m 10,5 km/h (2 Bft)
07.02.2015 20:04 2,7 C 1,1 C 95 % 1029,7 hPa 0,0 l/m 0 min 0 min 0 W/m 10,5 km/h (2 Bft)
07.02.2015 20:06 2,7 C 1,1 C 95 % 1029,7 hPa 0,0 l/m 0 min 0 min 0 W/m 8,4 km/h (2 Bft)
07.02.2015 20:08 2,7 C 1,1 C 95 % 1029,6 hPa 0,0 l/m 0 min 2 min 0 W/m 10,5 km/h (2 Bft)
07.02.2015 20:10 2,7 C 1,1 C 95 % 1029,7 hPa 0,0 l/m 0 min 2 min 0 W/m 6,3 km/h (2 Bft)
07.02.2015 20:12 2,7 C 1,1 C 95 % 1029,7 hPa 0,0 l/m 0 min 0 min 0 W/m 10,5 km/h (2 Bft)
07.02.2015 20:14 2,7 C 1,1 C 95 % 1029,7 hPa 0,0 l/m 0 min 0 min 0 W/m 10,5 km/h (2 Bft)
07.02.2015 20:16 2,7 C 1,1 C 95 % 1029,7 hPa 0,0 l/m 0 min 0 min 0 W/m 8,4 km/h (2 Bft)
07.02.2015 20:18 2,7 C 1,1 C 95 % 1029,7 hPa 0,0 l/m 0 min 0 min 0 W/m 8,4 km/h (2 Bft)
07.02.2015 20:20 2,7 C 1,1 C 95 % 1029,7 hPa 0,0 l/m 0 min 0 min 0 W/m 12,6 km/h (3 Bft)
07.02.2015 20:22 2,8 C 1,1 C 95 % 1029,6 hPa 0,0 l/m 0 min 0 min 0 W/m 6,3 km/h (2 Bft)
07.02.2015 20:24 2,8 C 1,1 C 95 % 1029,5 hPa 0,0 l/m 0 min 2 min 0 W/m 8,4 km/h (2 Bft)
07.02.2015 20:26 2,8 C 1,1 C 95 % 1029,4 hPa 0,0 l/m 0 min 0 min 0 W/m 10,5 km/h (2 Bft)
07.02.2015 20:28 2,8 C 1,1 C 95 % 1029,5 hPa 0,0 l/m 0 min 0 min 0 W/m 8,4 km/h (2 Bft)
07.02.2015 20:30 2,8 C 1,7 C 95 % 1029,5 hPa 0,0 l/m 0 min 0 min 0 W/m 12,6 km/h (3 Bft)
07.02.2015 20:32 2,8 C 1,7 C 95 % 1029,6 hPa 0,0 l/m 0 min 0 min 0 W/m 10,5 km/h (2 Bft)
07.02.2015 20:34 2,8 C 1,7 C 95 % 1029,5 hPa 0,0 l/m 0 min 0 min 0 W/m 14,6 km/h (3 Bft)
07.02.2015 20:36 2,8 C 1,7 C 95 % 1029,6 hPa 0,0 l/m 0 min 0 min 0 W/m 8,4 km/h (2 Bft)
07.02.2015 20:38 2,8 C 1,7 C 95 % 1029,6 hPa 0,0 l/m 0 min 0 min 0 W/m 10,5 km/h (2 Bft)
07.02.2015 20:40 2,8 C 1,7 C 95 % 1029,6 hPa 0,0 l/m 0 min 2 min 0 W/m 14,6 km/h (3 Bft)
07.02.2015 20:42 2,8 C 1,7 C 95 % 1029,4 hPa 0,0 l/m 0 min 2 min 0 W/m 12,6 km/h (3 Bft)
07.02.2015 20:44 2,9 C 1,7 C 95 % 1029,3 hPa 0,0 l/m 0 min 2 min 0 W/m 10,5 km/h (2 Bft)
07.02.2015 20:46 2,9 C 1,7 C 95 % 1029,3 hPa 0,0 l/m 0 min 0 min 0 W/m 10,5 km/h (2 Bft)
07.02.2015 20:48 2,9 C 1,7 C 95 % 1029,4 hPa 0,0 l/m 0 min 0 min 0 W/m 14,6 km/h (3 Bft)
07.02.2015 20:50 2,9 C 1,7 C 95 % 1029,6 hPa 0,0 l/m 0 min 0 min 0 W/m 14,6 km/h (3 Bft)
07.02.2015 20:52 2,9 C 1,7 C 95 % 1029,5 hPa 0,0 l/m 0 min 0 min 0 W/m 14,6 km/h (3 Bft)
07.02.2015 20:54 2,9 C 1,7 C 96 % 1029,5 hPa 0,0 l/m 0 min 0 min 0 W/m 14,6 km/h (3 Bft)
07.02.2015 20:56 2,9 C 1,7 C 96 % 1029,5 hPa 0,0 l/m 0 min 0 min 0 W/m 10,5 km/h (2 Bft)
07.02.2015 20:58 2,9 C 1,7 C 96 % 1029,5 hPa 0,0 l/m 0 min 0 min 0 W/m 12,6 km/h (3 Bft)
07.02.2015 21:00 2,9 C 1,7 C 96 % 1029,4 hPa 0,0 l/m 0 min 0 min 0 W/m 12,6 km/h (3 Bft)
07.02.2015 21:02 2,9 C 1,7 C 96 % 1029,3 hPa 0,0 l/m 0 min 0 min 0 W/m 14,6 km/h (3 Bft)
07.02.2015 21:04 2,9 C 1,7 C 96 % 1029,4 hPa 0,0 l/m 0 min 0 min 0 W/m 12,6 km/h (3 Bft)
07.02.2015 21:06 2,9 C 1,7 C 96 % 1029,3 hPa 0,0 l/m 0 min 0 min 0 W/m 12,6 km/h (3 Bft)
07.02.2015 21:08 3,0 C 1,7 C 96 % 1029,2 hPa 0,0 l/m 0 min 0 min 0 W/m 14,6 km/h (3 Bft)
07.02.2015 21:10 3,0 C 1,7 C 96 % 1029,3 hPa 0,0 l/m 0 min 0 min 0 W/m 18,8 km/h (3 Bft)
07.02.2015 21:12 3,0 C 1,7 C 96 % 1029,2 hPa 0,0 l/m 0 min 0 min 0 W/m 16,7 km/h (3 Bft)
07.02.2015 21:14 3,0 C 1,7 C 96 % 1029,2 hPa 0,0 l/m 0 min 0 min 0 W/m 16,7 km/h (3 Bft)
07.02.2015 21:16 3,1 C 1,7 C 96 % 1029,2 hPa 0,0 l/m 0 min 0 min 0 W/m 16,7 km/h (3 Bft)
07.02.2015 21:18 3,1 C 1,7 C 96 % 1029,2 hPa 0,0 l/m 0 min 0 min 0 W/m 18,8 km/h (3 Bft)
07.02.2015 21:20 3,1 C 1,7 C 96 % 1029,3 hPa 0,0 l/m 0 min 0 min 0 W/m 20,9 km/h (4 Bft)
07.02.2015 21:22 3,1 C 1,7 C 96 % 1029,3 hPa 0,0 l/m 0 min 0 min 0 W/m 16,7 km/h (3 Bft)
07.02.2015 21:24 3,1 C 1,7 C 96 % 1029,2 hPa 0,0 l/m 0 min 0 min 0 W/m 12,6 km/h (3 Bft)
07.02.2015 21:26 3,2 C 1,7 C 96 % 1029,1 hPa 0,0 l/m 0 min 0 min 0 W/m 14,6 km/h (3 Bft)
07.02.2015 21:28 3,1 C 1,7 C 96 % 1029,1 hPa 0,0 l/m 0 min 0 min 0 W/m 14,6 km/h (3 Bft)
07.02.2015 21:30 3,2 C 1,7 C 96 % 1029,0 hPa 0,0 l/m 0 min 0 min 0 W/m 16,7 km/h (3 Bft)
07.02.2015 21:32 3,2 C 1,7 C 96 % 1028,9 hPa 0,0 l/m 0 min 0 min 0 W/m 14,6 km/h (3 Bft)
07.02.2015 21:34 3,2 C 1,7 C 96 % 1028,9 hPa 0,0 l/m 0 min 2 min 0 W/m 14,6 km/h (3 Bft)
07.02.2015 21:36 3,2 C 1,7 C 96 % 1028,9 hPa 0,0 l/m 0 min 0 min 0 W/m 18,8 km/h (3 Bft)
07.02.2015 21:38 3,2 C 1,7 C 96 % 1029,0 hPa 0,0 l/m 0 min 0 min 0 W/m 20,9 km/h (4 Bft)
07.02.2015 21:40 3,2 C 1,7 C 96 % 1029,0 hPa 0,0 l/m 0 min 0 min 0 W/m 12,6 km/h (3 Bft)
07.02.2015 21:42 3,2 C 1,7 C 96 % 1029,1 hPa 0,0 l/m 0 min 0 min 0 W/m 18,8 km/h (3 Bft)
07.02.2015 21:44 3,2 C 1,7 C 96 % 1029,1 hPa 0,0 l/m 0 min 0 min 0 W/m 20,9 km/h (4 Bft)
07.02.2015 21:46 3,2 C 1,7 C 96 % 1029,0 hPa 0,0 l/m 0 min 0 min 0 W/m 18,8 km/h (3 Bft)
07.02.2015 21:48 3,2 C 1,7 C 96 % 1029,0 hPa 0,0 l/m 0 min 0 min 0 W/m 16,7 km/h (3 Bft)
07.02.2015 21:50 3,2 C 1,7 C 96 % 1029,1 hPa 0,0 l/m 0 min 0 min 0 W/m 18,8 km/h (3 Bft)
07.02.2015 21:52 3,2 C 1,7 C 96 % 1029,0 hPa 0,0 l/m 0 min 0 min 0 W/m 14,6 km/h (3 Bft)
07.02.2015 21:54 3,2 C 1,7 C 96 % 1029,0 hPa 0,0 l/m 0 min 0 min 0 W/m 16,7 km/h (3 Bft)
07.02.2015 21:56 3,2 C 1,7 C 96 % 1028,9 hPa 0,0 l/m 0 min 0 min 0 W/m 16,7 km/h (3 Bft)
07.02.2015 21:58 3,3 C 1,7 C 96 % 1028,9 hPa 0,0 l/m 0 min 0 min 0 W/m 16,7 km/h (3 Bft)
07.02.2015 22:00 3,3 C 1,7 C 96 % 1028,9 hPa 0,0 l/m 0 min 0 min 0 W/m 20,9 km/h (4 Bft)
07.02.2015 22:02 3,3 C 1,7 C 96 % 1028,8 hPa 0,0 l/m 0 min 0 min 0 W/m 18,8 km/h (3 Bft)
07.02.2015 22:04 3,3 C 1,7 C 96 % 1028,8 hPa 0,0 l/m 0 min 0 min 0 W/m 18,8 km/h (3 Bft)
07.02.2015 22:06 3,3 C 1,7 C 96 % 1028,9 hPa 0,0 l/m 0 min 0 min 0 W/m 14,6 km/h (3 Bft)
07.02.2015 22:08 3,3 C 1,7 C 96 % 1028,8 hPa 0,0 l/m 0 min 0 min 0 W/m 18,8 km/h (3 Bft)
07.02.2015 22:10 3,3 C 1,7 C 96 % 1028,9 hPa 0,0 l/m 0 min 0 min 0 W/m 14,6 km/h (3 Bft)
07.02.2015 22:12 3,3 C 1,7 C 96 % 1028,9 hPa 0,0 l/m 0 min 0 min 0 W/m 14,6 km/h (3 Bft)
07.02.2015 22:14 3,3 C 1,7 C 96 % 1028,8 hPa 0,0 l/m 0 min 0 min 0 W/m 16,7 km/h (3 Bft)
07.02.2015 22:16 3,3 C 1,7 C 96 % 1028,6 hPa 0,0 l/m 0 min 0 min 0 W/m 12,6 km/h (3 Bft)
07.02.2015 22:18 3,3 C 1,7 C 96 % 1028,5 hPa 0,0 l/m 0 min 0 min 0 W/m 12,6 km/h (3 Bft)
07.02.2015 22:20 3,3 C 1,7 C 96 % 1028,4 hPa 0,0 l/m 0 min 0 min 0 W/m 14,6 km/h (3 Bft)
07.02.2015 22:22 3,3 C 1,7 C 96 % 1028,3 hPa 0,2 l/m 0 min 0 min 0 W/m 12,6 km/h (3 Bft)
07.02.2015 22:24 3,3 C 1,7 C 96 % 1028,3 hPa 0,0 l/m 0 min 0 min 0 W/m 20,9 km/h (4 Bft)
07.02.2015 22:26 3,3 C 2,2 C 96 % 1028,4 hPa 0,0 l/m 0 min 0 min 0 W/m 14,6 km/h (3 Bft)
07.02.2015 22:28 3,3 C 2,2 C 96 % 1028,7 hPa 0,0 l/m 0 min 0 min 0 W/m 14,6 km/h (3 Bft)
07.02.2015 22:30 3,3 C 2,2 C 97 % 1028,8 hPa 0,0 l/m 0 min 0 min 0 W/m 16,7 km/h (3 Bft)
07.02.2015 22:32 3,3 C 2,2 C 97 % 1028,9 hPa 0,0 l/m 0 min 0 min 0 W/m 8,4 km/h (2 Bft)
07.02.2015 22:34 3,4 C 2,2 C 97 % 1028,9 hPa 0,0 l/m 0 min 0 min 0 W/m 20,9 km/h (4 Bft)
07.02.2015 22:36 3,4 C 2,2 C 97 % 1028,8 hPa 0,0 l/m 0 min 0 min 0 W/m 14,6 km/h (3 Bft)
07.02.2015 22:38 3,4 C 2,2 C 97 % 1028,8 hPa 0,0 l/m 0 min 0 min 0 W/m 14,6 km/h (3 Bft)
07.02.2015 22:40 3,4 C 2,2 C 97 % 1028,9 hPa 0,0 l/m 0 min 0 min 0 W/m 14,6 km/h (3 Bft)
07.02.2015 22:42 3,4 C 2,2 C 97 % 1028,9 hPa 0,0 l/m 0 min 0 min 0 W/m 16,7 km/h (3 Bft)
07.02.2015 22:44 3,4 C 2,2 C 97 % 1028,8 hPa 0,0 l/m 0 min 0 min 0 W/m 14,6 km/h (3 Bft)
07.02.2015 22:46 3,4 C 2,2 C 97 % 1028,9 hPa 0,0 l/m 0 min 0 min 0 W/m 14,6 km/h (3 Bft)
07.02.2015 22:48 3,4 C 2,2 C 97 % 1028,9 hPa 0,0 l/m 0 min 0 min 0 W/m 20,9 km/h (4 Bft)
07.02.2015 22:50 3,4 C 2,2 C 97 % 1028,7 hPa 0,0 l/m 0 min 0 min 0 W/m 25,1 km/h (4 Bft)
07.02.2015 22:52 3,4 C 2,2 C 97 % 1028,6 hPa 0,0 l/m 0 min 0 min 0 W/m 16,7 km/h (3 Bft)
07.02.2015 22:54 3,4 C 2,2 C 97 % 1028,6 hPa 0,0 l/m 0 min 0 min 0 W/m 23,0 km/h (4 Bft)
07.02.2015 22:56 3,4 C 2,2 C 97 % 1028,5 hPa 0,0 l/m 0 min 0 min 0 W/m 12,6 km/h (3 Bft)
07.02.2015 22:58 3,5 C 1,7 C 97 % 1028,3 hPa 0,0 l/m 0 min 0 min 0 W/m 18,8 km/h (3 Bft)
07.02.2015 23:00 3,4 C 1,7 C 97 % 1028,3 hPa 0,0 l/m 0 min 0 min 0 W/m 14,6 km/h (3 Bft)
07.02.2015 23:02 3,4 C 1,7 C 97 % 1028,3 hPa 0,0 l/m 0 min 0 min 0 W/m 12,6 km/h (3 Bft)
07.02.2015 23:04 3,4 C 1,7 C 97 % 1028,4 hPa 0,0 l/m 0 min 0 min 0 W/m 16,7 km/h (3 Bft)
07.02.2015 23:06 3,4 C 1,7 C 97 % 1028,4 hPa 0,0 l/m 0 min 0 min 0 W/m 16,7 km/h (3 Bft)
07.02.2015 23:08 3,4 C 1,7 C 97 % 1028,3 hPa 0,0 l/m 0 min 0 min 0 W/m 14,6 km/h (3 Bft)
07.02.2015 23:10 3,4 C 1,7 C 97 % 1028,3 hPa 0,0 l/m 0 min 0 min 0 W/m 20,9 km/h (4 Bft)
07.02.2015 23:12 3,4 C 1,7 C 97 % 1028,3 hPa 0,0 l/m 0 min 0 min 0 W/m 20,9 km/h (4 Bft)
07.02.2015 23:14 3,4 C 1,7 C 97 % 1028,3 hPa 0,0 l/m 0 min 0 min 0 W/m 20,9 km/h (4 Bft)
07.02.2015 23:16 3,4 C 2,2 C 97 % 1028,3 hPa 0,0 l/m 0 min 0 min 0 W/m 18,8 km/h (3 Bft)
07.02.2015 23:18 3,4 C 2,2 C 97 % 1028,3 hPa 0,0 l/m 0 min 0 min 0 W/m 16,7 km/h (3 Bft)
07.02.2015 23:20 3,4 C 2,2 C 97 % 1028,3 hPa 0,0 l/m 0 min 0 min 0 W/m 18,8 km/h (3 Bft)
07.02.2015 23:22 3,4 C 2,2 C 97 % 1028,4 hPa 0,0 l/m 0 min 0 min 0 W/m 23,0 km/h (4 Bft)
07.02.2015 23:24 3,5 C 2,2 C 97 % 1028,3 hPa 0,0 l/m 0 min 0 min 0 W/m 14,6 km/h (3 Bft)
07.02.2015 23:26 3,5 C 2,2 C 97 % 1028,3 hPa 0,0 l/m 0 min 0 min 0 W/m 18,8 km/h (3 Bft)
07.02.2015 23:28 3,5 C 2,2 C 97 % 1028,3 hPa 0,0 l/m 0 min 0 min 0 W/m 23,0 km/h (4 Bft)
07.02.2015 23:30 3,5 C 2,2 C 97 % 1028,3 hPa 0,0 l/m 0 min 0 min 0 W/m 16,7 km/h (3 Bft)
07.02.2015 23:32 3,5 C 2,2 C 97 % 1028,3 hPa 0,0 l/m 0 min 0 min 0 W/m 20,9 km/h (4 Bft)
07.02.2015 23:34 3,5 C 2,2 C 97 % 1028,2 hPa 0,0 l/m 0 min 0 min 0 W/m 20,9 km/h (4 Bft)
07.02.2015 23:36 3,5 C 2,2 C 97 % 1028,3 hPa 0,0 l/m 0 min 0 min 0 W/m 16,7 km/h (3 Bft)
07.02.2015 23:38 3,6 C 2,2 C 97 % 1028,3 hPa 0,0 l/m 0 min 0 min 0 W/m 20,9 km/h (4 Bft)
07.02.2015 23:40 3,6 C 2,2 C 97 % 1028,1 hPa 0,0 l/m 0 min 0 min 0 W/m 16,7 km/h (3 Bft)
07.02.2015 23:42 3,6 C 2,2 C 97 % 1028,0 hPa 0,0 l/m 0 min 0 min 0 W/m 16,7 km/h (3 Bft)
07.02.2015 23:44 3,6 C 2,2 C 97 % 1028,1 hPa 0,0 l/m 0 min 0 min 0 W/m 16,7 km/h (3 Bft)
07.02.2015 23:46 3,6 C 2,2 C 97 % 1028,1 hPa 0,0 l/m 0 min 0 min 0 W/m 20,9 km/h (4 Bft)
07.02.2015 23:48 3,6 C 2,2 C 97 % 1028,1 hPa 0,0 l/m 0 min 0 min 0 W/m 16,7 km/h (3 Bft)
07.02.2015 23:50 3,6 C 2,2 C 97 % 1028,2 hPa 0,0 l/m 0 min 0 min 0 W/m 20,9 km/h (4 Bft)
07.02.2015 23:52 3,6 C 2,2 C 97 % 1028,2 hPa 0,0 l/m 0 min 0 min 0 W/m 16,7 km/h (3 Bft)
07.02.2015 23:54 3,6 C 2,2 C 97 % 1028,2 hPa 0,0 l/m 0 min 0 min 0 W/m 14,6 km/h (3 Bft)
07.02.2015 23:56 3,6 C 2,2 C 97 % 1028,3 hPa 0,0 l/m 0 min 0 min 0 W/m 18,8 km/h (3 Bft)
07.02.2015 23:58 3,6 C 2,2 C 97 % 1028,3 hPa 0,0 l/m 0 min 0 min 0 W/m 14,6 km/h (3 Bft)
_ Min-Zeit 06:46 05:26 13:12 23:42 - - - - 04:50
Minimum _ -3,8 C -5,6 C 63 % 1028,0 hPa - - - - 2,1 km/h (1 Bft)
_ Max-Zeit 14:52 14:26 22:30 10:28 22:22 08:16 16:26 13:18 00:02
Maximum _ 4,4 C 3,9 C 97 % 1032,6 hPa 0,2 l/m 2 min 2 min 526 W/m 27,2 km/h
O (4 Bft)
Durchschnitt _ 0,6 C -0,9 C 86 % 1030,5 hPa #0,2 l/m #5:29 h #29 min. 177 W/m 10,8 km/h (2 Bft)
© 2015 W. Hausmann